GFSNE_250_spd_000.txt.gz
Wind_Speed
97 101 104 99 93 92 92 91 91 83 79 88 89 93 81 80 84 88 90 77 78 85 81 91 95 101 108 102 108 86 81 85 87 91 97 104 108 111
95 97 96 99 96 92 90 84 84 81 78 81 85 75 77 79 87 86 86 77 82 80 91 95 96 105 100 100 109 85 85 87 90 97 104 107 111 110
99 94 93 95 95 90 85 87 80 81 78 76 70 75 72 79 84 87 78 77 79 87 91 95 102 105 99 102 104 86 87 89 96 103 107 110 109 105
103 95 89 88 89 85 81 81 78 79 73 61 70 76 78 81 86 79 75 80 85 86 94 98 103 101 105 107 90 88 90 94 102 106 109 108 106 98
102 89 83 83 81 81 76 73 72 66 65 65 72 75 76 79 82 74 78 83 88 92 91 97 104 105 103 108 90 91 93 99 106 107 108 107 103 90
102 87 80 75 76 75 70 60 62 64 66 69 77 80 81 81 79 77 82 82 89 86 94 100 98 103 104 101 92 92 96 103 105 108 108 105 98 83
98 82 75 70 68 66 59 63 65 70 70 74 75 77 71 76 79 81 86 88 92 96 94 96 97 101 102 98 94 94 99 104 105 105 106 102 88 78
91 79 73 68 63 63 56 57 64 72 73 71 72 72 72 75 76 83 83 88 93 98 95 98 101 100 102 94 95 98 102 104 106 107 103 92 78 73
88 75 70 65 62 61 58 57 60 65 66 68 68 69 78 81 82 87 89 91 92 93 96 100 98 97 94 90 94 98 103 105 106 104 97 80 68 67
83 75 67 65 63 58 60 55 59 65 69 67 62 65 74 79 79 82 86 85 90 94 100 98 96 97 90 89 94 97 101 104 106 103 89 74 61 62
81 73 65 63 61 64 61 63 63 64 67 66 70 74 82 85 84 89 88 90 92 95 96 93 94 91 87 90 93 96 101 103 101 96 82 69 60 56
78 70 64 65 67 65 66 60 63 67 65 68 72 77 76 79 86 90 86 91 93 94 89 91 95 85 90 91 92 93 100 100 97 84 74 63 56 50
71 67 65 66 70 70 71 64 59 66 75 71 73 76 81 88 90 88 87 87 90 87 86 91 77 84 89 94 93 96 99 98 90 76 67 58 51 46
66 65 65 66 69 72 72 64 67 70 73 73 76 77 79 85 84 87 83 84 82 83 88 87 79 83 89 95 93 98 99 93 82 70 60 53 45 39
60 61 63 66 69 68 64 62 64 68 71 73 76 80 82 84 81 83 77 84 78 81 81 78 79 83 89 90 95 98 98 91 78 68 58 50 43 39
57 57 59 64 62 61 61 62 61 66 67 67 69 75 75 74 78 74 72 74 81 82 83 75 77 85 89 88 95 95 94 86 75 63 54 47 45 41
52 53 56 57 54 55 58 60 62 65 67 63 67 71 72 72 73 64 70 77 80 82 73 73 77 86 87 93 97 94 88 75 67 56 46 45 43 41
51 51 50 50 49 49 52 57 61 62 60 64 65 65 67 58 61 65 71 77 76 68 68 71 79 82 84 86 89 88 75 67 57 49 42 42 40 36
48 48 44 43 44 44 48 50 56 62 64 66 55 47 49 56 63 69 72 67 60 64 68 73 77 81 85 87 88 81 70 61 52 46 42 40 34 31
46 44 44 42 40 43 44 42 37 39 42 46 42 47 53 59 67 65 61 57 58 64 69 71 77 78 83 88 84 73 65 55 47 44 42 37 31 29
45 40 43 43 40 39 40 34 32 39 42 42 43 47 48 51 52 52 51 54 58 63 66 71 75 78 83 82 73 65 58 49 44 42 37 32 31 29
44 42 43 39 39 38 39 39 42 39 39 39 38 39 47 47 46 46 51 55 54 60 65 71 71 77 79 73 66 58 48 45 46 39 34 33 29 25
42 44 43 43 43 43 40 33 38 35 32 38 41 46 46 42 41 44 43 46 54 58 65 65 71 74 74 66 59 49 43 43 39 35 32 28 24 22

GFSNE_250_spd_003.txt.gz
Wind_Speed
87 90 93 97 97 102 108 109 104 95 82 74 75 77 77 80 77 76 78 76 76 80 83 87 88 87 82 92 98 92 102 107 103 97 93 86 87 94
89 91 96 100 101 105 107 108 105 95 77 71 69 75 76 77 78 76 74 73 79 82 86 83 85 83 90 92 97 102 104 107 105 97 91 89 91 98
87 93 97 102 106 108 109 109 106 94 75 63 66 72 71 74 68 67 69 75 78 85 86 81 80 83 89 94 98 102 102 108 100 98 93 92 96 99
92 98 100 106 109 110 111 110 100 90 75 60 63 65 62 62 60 65 71 76 81 80 84 78 81 84 88 96 98 102 103 108 95 97 93 96 98 103
101 105 105 110 110 114 113 107 97 85 71 61 65 63 65 66 60 67 74 78 81 79 76 76 85 90 92 99 99 104 105 101 101 92 94 98 101 104
104 106 108 110 109 113 111 105 93 81 68 59 62 62 66 66 62 68 74 74 78 76 76 81 85 90 99 101 102 105 98 100 97 93 96 99 104 103
107 110 112 113 110 112 111 102 90 76 64 57 60 67 69 68 66 68 71 70 75 76 79 84 90 95 99 101 103 96 97 101 93 94 97 103 104 100
111 115 116 115 111 110 106 98 84 73 62 53 61 68 67 69 63 67 66 72 75 79 84 90 92 95 100 102 104 96 97 97 93 95 101 105 104 94
118 115 116 114 117 109 102 90 79 70 62 56 58 66 67 65 70 66 73 79 78 83 90 94 91 94 100 101 99 94 99 92 94 99 104 105 99 91
119 114 110 113 110 108 97 82 74 68 62 56 56 63 64 70 70 75 79 78 83 88 89 93 92 96 98 96 95 94 101 94 94 100 105 104 99 89
116 113 110 111 105 99 85 75 71 64 61 54 55 57 64 65 72 77 77 84 89 85 93 92 95 98 96 94 90 98 101 93 96 103 105 102 99 85
111 110 110 109 99 85 77 72 62 58 57 53 54 58 64 69 69 71 77 87 86 89 94 94 94 94 92 92 96 97 92 93 98 103 101 100 90 78
109 106 98 87 78 72 72 62 56 55 54 53 56 60 62 70 72 73 79 86 90 92 94 92 94 92 94 93 97 88 89 92 100 99 95 92 80 69
98 92 81 73 68 66 62 55 53 54 51 51 55 58 66 70 71 78 83 88 88 88 89 91 94 88 90 95 89 88 91 96 97 95 92 83 73 63
76 70 66 67 64 57 54 52 51 52 51 54 49 56 60 71 78 80 84 87 86 88 86 88 85 87 89 94 89 91 95 97 96 95 88 76 65 60
68 65 63 62 52 52 51 49 49 51 51 55 59 66 73 74 78 83 83 85 86 85 85 80 84 88 88 78 87 92 93 96 99 95 81 69 60 55
63 63 58 50 49 48 47 47 47 44 48 55 59 63 66 70 73 76 76 77 77 78 76 80 84 75 74 81 88 93 96 97 95 81 67 58 54 50
59 54 47 46 45 44 44 43 39 38 42 48 53 58 62 68 69 70 74 67 66 70 74 72 66 72 75 81 84 90 88 90 79 66 57 51 48 48
50 46 46 45 41 40 39 36 34 32 36 42 45 47 55 61 59 55 56 60 66 69 64 63 66 69 75 81 87 89 91 80 67 59 55 50 46 36
46 45 44 41 38 34 32 28 28 31 33 33 35 39 40 40 47 53 58 60 60 59 57 61 65 73 77 85 88 88 87 73 61 52 47 43 39 37
43 42 40 36 34 30 28 29 30 31 34 36 36 37 41 47 52 49 52 57 52 53 57 61 67 73 80 82 86 86 73 63 57 52 42 35 31 30
40 37 32 33 32 29 29 26 29 28 29 35 37 40 42 41 47 49 52 48 47 50 56 63 69 77 81 84 85 76 64 56 49 42 34 30 31 31
37 34 35 34 34 32 31 31 35 37 36 38 36 32 36 37 39 41 40 43 44 51 59 65 72 78 80 83 74 64 56 49 42 37 34 33 31 23

GFSNE_250_spd_006.txt.gz
Wind_Speed
72 71 73 75 80 82 85 89 92 90 91 95 99 103 107 106 106 96 79 62 61 62 66 71 68 66 67 68 73 77 76 78 86 89 94 98 98 91
74 75 74 75 79 86 91 94 97 101 96 100 102 104 105 109 108 96 81 60 59 60 65 66 66 64 67 74 76 73 76 82 89 93 98 99 96 92
76 77 79 82 84 89 96 101 102 105 104 99 106 107 106 106 103 96 83 66 59 61 67 70 69 71 75 76 69 73 80 87 94 100 97 96 94 91
81 82 85 88 90 94 100 104 107 108 110 104 109 110 108 105 99 90 81 68 60 60 64 66 73 77 77 68 70 75 84 92 97 96 99 98 96 94
86 87 89 91 94 97 102 109 112 112 114 111 108 111 105 103 93 83 77 68 61 61 60 68 73 75 75 72 75 79 90 93 97 98 98 96 92 98
93 96 96 98 101 102 106 108 115 117 120 116 114 111 105 95 83 75 74 68 62 59 60 68 73 75 77 79 78 87 91 94 98 99 97 95 95 103
102 105 107 108 110 111 112 110 117 118 118 116 110 108 102 88 74 71 71 69 62 57 59 69 75 78 79 83 80 91 93 96 98 98 101 98 99 103
110 113 115 117 118 118 118 118 118 114 113 111 102 102 91 79 66 67 70 67 62 61 61 67 76 77 81 81 85 93 95 99 99 102 102 97 101 101
119 120 121 123 124 123 120 115 114 108 103 106 99 93 82 68 62 65 66 64 61 61 66 70 76 78 79 81 91 96 99 100 102 102 99 99 105 100
124 124 124 123 124 124 119 111 103 104 103 95 90 80 69 54 55 64 62 63 58 63 69 76 77 77 79 88 93 98 101 102 109 105 97 103 100 99
123 123 122 117 114 111 107 105 103 97 87 81 76 64 59 60 59 58 60 55 61 63 71 75 74 79 82 89 95 99 102 106 103 95 101 98 95 96
112 113 114 115 108 101 99 94 87 77 74 72 62 54 57 54 53 52 53 55 60 68 73 74 77 78 84 93 98 101 104 101 97 98 95 93 93 95
108 107 102 97 87 80 82 76 72 68 65 56 53 53 52 48 46 48 52 59 63 70 75 76 75 82 89 94 98 102 102 92 97 91 93 91 91 95
98 94 88 82 78 72 70 61 56 55 52 51 52 48 47 44 45 51 56 60 68 73 72 72 75 84 92 96 97 99 91 94 92 91 90 88 89 88
78 74 72 70 69 66 62 60 55 52 49 51 49 46 44 43 44 50 55 59 63 68 68 76 82 88 90 94 96 87 93 89 86 88 86 87 87 82
74 69 66 64 64 60 57 53 50 50 50 48 44 43 42 44 47 53 60 62 68 71 77 80 84 84 88 89 85 89 85 85 86 87 89 87 84 73
70 64 60 56 54 50 49 48 50 47 44 42 40 39 44 50 54 60 62 67 69 71 77 77 79 82 78 81 85 85 82 84 84 89 86 80 71 66
58 56 53 52 47 45 46 47 46 41 39 38 36 40 46 54 57 61 63 62 61 67 72 72 69 72 76 79 76 80 83 84 83 82 80 71 62 59
51 47 47 46 44 43 43 43 40 37 34 32 33 37 41 45 49 52 49 48 53 59 60 63 69 74 77 75 74 79 82 80 79 73 66 59 55 52
42 40 42 42 42 40 40 38 36 33 30 31 31 25 30 39 40 38 37 43 48 53 58 65 68 69 70 74 80 73 77 78 73 66 57 49 44 42
37 34 33 35 36 36 36 35 32 32 30 31 28 32 39 37 31 32 38 41 47 53 56 60 63 66 70 75 76 74 71 69 63 55 50 44 36 26
35 32 30 31 31 29 32 33 32 31 27 27 27 23 26 25 31 32 36 41 45 50 56 57 62 68 73 75 72 69 66 53 46 42 42 37 29 20
35 32 29 30 29 29 32 32 31 29 29 24 25 25 19 22 28 33 38 44 46 51 56 60 67 71 73 70 66 60 53 47 44 37 30 31 29 24

GFSNE_250_spd_009.txt.gz
Wind_Speed
99 105 106 99 93 84 80 80 81 76 75 81 83 90 90 92 98 103 104 102 107 107 105 96 89 79 68 64 64 62 61 58 61 66 69 71 73 74
110 109 99 94 91 84 81 83 86 84 78 83 84 91 93 92 97 104 107 109 111 109 107 97 87 75 67 66 63 59 59 61 63 67 69 73 74 78
112 103 92 88 85 83 85 87 87 92 93 84 90 95 97 99 99 104 109 113 113 110 108 98 88 74 65 63 62 57 60 64 66 68 70 76 76 81
107 91 81 79 81 84 86 87 90 95 100 97 96 102 102 105 108 110 113 111 111 105 100 94 84 73 65 62 60 58 61 67 70 72 74 78 81 87
89 92 93 94 89 88 90 91 93 95 100 103 102 104 105 106 113 116 118 111 109 100 93 88 79 73 66 62 65 64 62 67 72 74 77 79 85 92
103 102 102 105 102 103 103 105 105 104 103 106 107 109 112 113 114 118 114 111 105 94 84 80 76 72 66 64 68 73 70 70 75 77 82 83 90 94
115 113 114 115 115 115 114 113 112 113 113 112 112 114 115 112 106 112 106 105 98 81 75 73 72 72 70 66 71 72 71 72 76 81 82 88 92 98
123 123 122 120 122 122 122 118 116 116 115 115 110 107 104 103 99 97 96 91 90 75 69 69 70 70 69 70 73 71 71 75 78 81 87 89 96 98
120 120 120 120 118 115 112 110 109 109 106 102 95 89 92 94 94 91 91 83 73 68 66 64 67 68 72 71 73 69 71 77 80 87 88 91 98 101
111 110 108 104 104 104 100 100 102 101 97 94 88 86 82 83 79 78 77 74 72 61 62 63 64 68 68 72 72 72 73 78 85 87 88 95 101 100
115 116 114 108 105 101 93 86 85 83 85 83 81 77 72 66 67 65 65 64 64 62 68 65 63 67 69 74 70 69 76 83 86 87 92 99 97 102
105 105 101 93 91 89 83 78 72 73 74 73 68 61 58 60 61 56 55 55 58 57 63 63 64 67 69 71 72 75 79 85 85 89 98 98 99 96
88 89 87 83 80 75 75 67 62 60 60 56 56 50 51 53 51 48 47 51 50 58 61 61 57 68 70 68 72 79 83 84 88 93 98 97 92 94
82 78 77 75 70 69 66 61 55 55 55 52 50 46 47 46 45 45 46 49 51 55 58 54 59 70 68 71 78 81 83 88 92 95 93 89 91 88
71 69 68 65 63 64 62 58 54 51 50 49 47 48 47 43 43 44 45 48 52 55 58 61 64 65 67 75 79 82 88 91 92 88 89 90 86 87
65 62 61 60 59 59 59 56 52 48 44 43 43 43 39 40 41 44 46 50 51 57 56 55 57 65 70 75 79 84 88 87 84 85 89 83 83 83
62 57 54 51 50 48 48 46 43 42 40 36 35 35 38 38 42 45 48 49 52 56 59 60 64 68 71 74 81 81 80 80 82 81 81 82 81 76
57 53 51 48 46 44 44 40 38 37 34 32 33 34 35 37 43 44 54 53 55 58 60 61 65 68 70 75 71 73 78 81 77 76 75 79 75 66
46 44 42 38 38 39 38 34 33 32 31 32 31 31 33 37 42 49 53 46 53 58 60 62 65 64 63 62 66 73 77 76 73 72 72 70 63 53
48 45 42 38 35 33 32 31 31 31 30 29 29 31 34 37 42 49 48 44 42 44 49 50 53 55 59 65 69 68 72 72 73 70 63 55 47 43
42 40 38 33 30 28 27 29 30 28 27 28 28 30 35 37 40 43 32 27 32 36 40 47 50 56 64 66 68 70 65 66 62 60 52 45 38 37
36 34 32 27 24 23 23 24 23 24 25 27 27 29 33 34 30 22 27 34 36 39 44 48 55 59 59 65 65 69 64 54 49 46 43 38 33 28
29 27 24 23 22 20 20 20 21 23 24 25 26 29 30 20 17 25 26 30 37 42 48 56 58 59 62 63 63 59 50 45 42 39 34 31 28 21

GFSNE_250_spd_012.txt.gz
Wind_Speed
114 117 118 120 121 121 122 122 111 105 96 84 78 78 80 82 84 89 91 92 92 92 93 95 95 97 98 103 106 102 94 80 68 66 64 61 61 61
119 121 123 124 122 120 119 109 106 101 95 85 80 80 83 83 84 87 89 92 94 97 99 99 99 100 102 104 107 103 92 76 67 65 65 62 64 65
127 124 118 117 113 113 112 107 109 106 102 87 91 91 93 94 93 95 97 97 98 99 103 104 107 106 106 106 104 101 80 69 68 66 68 66 66 67
125 123 123 121 121 121 118 116 114 114 112 98 97 101 102 101 102 103 105 105 105 105 106 111 109 109 107 106 99 90 76 66 67 70 70 67 67 68
131 130 129 130 130 128 126 118 115 114 111 108 102 107 107 108 107 107 109 111 112 107 108 108 111 108 106 100 90 80 73 67 68 67 71 66 66 73
133 132 130 127 122 119 116 113 107 105 104 102 99 96 104 108 107 104 100 103 104 106 110 106 103 104 101 89 80 75 71 65 68 70 70 67 70 74
126 127 127 119 117 113 105 100 95 94 94 90 86 89 92 91 94 95 94 91 88 93 98 97 96 94 88 83 75 68 65 69 70 71 71 71 73 75
125 124 122 120 118 111 102 97 95 95 93 94 91 89 88 90 90 91 90 90 85 83 85 85 86 83 81 78 70 67 66 69 70 73 73 71 73 75
126 118 112 108 105 99 97 95 93 90 90 88 82 78 78 81 82 82 80 81 82 75 77 82 82 75 75 76 72 66 66 66 69 73 72 68 74 80
104 101 98 94 92 91 88 85 83 82 85 83 75 70 72 72 74 74 75 76 77 75 74 73 69 67 72 75 72 66 67 68 70 71 72 75 77 80
94 93 90 87 86 83 77 72 68 70 73 71 69 66 64 64 65 64 65 70 66 65 64 62 59 61 71 72 74 68 69 71 74 74 74 74 78 83
81 83 83 80 78 78 72 67 59 63 64 64 58 54 55 56 54 52 56 53 51 54 55 54 53 59 65 69 71 69 70 70 72 72 74 76 81 86
72 74 74 72 67 65 64 58 53 53 57 50 52 52 47 45 46 46 45 46 47 49 48 48 49 55 62 68 71 72 75 72 73 73 74 80 84 86
64 67 67 66 64 61 58 54 47 45 44 46 47 44 44 43 45 44 44 44 42 43 44 45 49 57 63 64 68 71 74 72 74 74 79 82 83 86
63 60 61 60 58 57 53 50 45 43 42 44 44 43 41 41 43 43 44 42 42 41 40 43 48 53 57 60 65 71 72 71 74 78 82 83 85 87
61 56 53 53 51 50 47 41 39 38 38 37 38 39 38 39 40 42 41 41 39 39 41 42 44 48 52 58 63 66 69 75 77 79 81 84 83 85
60 54 50 48 46 43 40 38 38 37 36 36 35 33 32 33 34 36 37 37 36 38 39 44 48 51 56 60 66 70 71 74 77 80 81 83 81 80
56 52 47 44 41 37 34 31 31 32 32 31 28 27 27 27 27 31 34 36 39 40 43 48 51 55 57 59 62 68 72 73 77 78 77 79 76 77
51 47 43 39 36 35 33 29 28 28 27 24 22 22 23 23 26 32 35 38 40 42 44 45 48 52 57 60 64 69 72 69 68 71 71 75 79 76
43 40 38 34 31 29 27 26 25 22 21 20 20 21 22 25 28 31 34 37 40 42 45 45 43 47 53 57 60 60 62 65 67 71 74 76 73 67
33 31 28 27 25 24 22 22 20 18 19 18 16 18 22 25 28 31 34 40 42 44 43 41 45 48 52 53 54 55 62 67 71 73 70 62 55 49
26 23 21 18 19 18 18 17 16 17 15 14 15 18 21 24 26 31 36 38 39 40 39 43 45 47 49 52 54 58 63 67 69 61 54 47 41 38
20 18 15 14 14 15 14 13 13 12 13 15 16 18 19 21 26 32 35 32 33 37 40 42 44 48 51 53 58 63 62 54 50 44 40 39 36 33

GFSNE_250_spd_015.txt.gz
Wind_Speed
119 122 124 127 127 130 133 134 133 125 119 121 114 112 114 114 110 110 111 105 104 103 103 99 98 96 92 94 92 90 91 93 94 94 96 95 94 85
129 131 133 134 134 133 132 132 132 133 127 117 116 117 116 115 113 112 112 113 112 109 107 106 107 104 99 99 99 96 95 97 98 96 95 95 89 82
138 137 137 137 136 137 136 132 131 131 125 112 115 114 116 116 116 116 113 108 108 109 109 109 108 106 103 100 101 97 100 101 101 99 97 92 87 80
139 140 143 140 136 132 130 129 127 125 116 109 106 108 111 112 109 107 106 101 101 103 106 108 108 105 104 103 102 99 98 100 101 97 95 88 82 73
146 142 136 137 139 134 132 128 119 115 110 103 94 98 102 107 102 99 99 98 96 95 97 98 101 100 101 96 104 98 96 99 97 92 88 85 76 70
140 140 140 136 130 126 121 116 112 106 101 95 89 86 89 90 89 90 90 90 89 91 91 90 90 92 93 92 96 95 95 96 92 90 86 82 74 68
140 129 124 121 118 112 105 104 100 96 92 88 87 82 81 80 79 83 84 87 86 86 88 86 89 86 84 87 90 90 89 88 85 83 81 75 73 67
116 112 110 108 106 103 99 94 88 84 81 81 78 76 75 75 76 77 79 81 79 83 84 83 84 82 81 82 84 83 80 80 78 77 77 75 69 68
104 102 102 102 99 96 90 88 82 79 74 71 70 71 68 75 76 75 75 74 74 76 78 75 79 78 74 73 74 75 74 72 74 75 74 74 69 69
99 97 96 92 91 89 84 81 81 79 78 72 65 63 66 68 70 70 69 68 66 69 73 69 73 73 70 68 71 70 68 70 71 71 71 71 74 72
93 92 91 84 81 79 75 69 68 71 72 65 61 58 58 63 66 62 61 60 58 63 66 67 67 65 65 64 69 66 64 63 64 67 73 74 69 68
84 85 83 79 74 73 69 63 61 63 64 64 58 54 51 52 54 54 55 53 51 55 60 56 56 59 59 57 57 58 58 59 63 68 69 71 69 70
76 75 75 73 69 67 62 57 55 56 60 58 57 51 47 45 46 47 46 46 46 47 50 43 46 47 45 46 49 51 55 58 61 66 69 71 70 70
67 67 67 66 64 61 55 51 50 49 51 52 50 49 42 39 40 40 39 40 40 41 40 40 38 41 41 43 47 49 51 55 58 62 65 70 73 75
66 64 63 62 60 56 49 48 46 44 44 45 44 40 37 37 36 37 35 36 36 37 36 35 36 35 35 37 40 42 47 52 57 62 66 70 70 74
64 58 56 55 53 48 44 44 40 39 39 38 35 32 33 30 28 30 33 32 31 32 34 35 33 32 32 33 37 43 48 56 60 61 64 66 67 72
59 54 50 47 44 41 39 36 34 32 30 28 30 31 29 29 26 26 26 26 27 28 30 29 29 28 30 33 38 42 47 52 55 59 63 68 72 75
52 49 45 40 37 33 32 30 27 26 25 24 24 24 25 24 21 20 21 21 22 23 24 25 26 28 29 31 35 39 46 51 56 61 66 71 71 72
44 43 38 33 29 27 25 23 22 22 22 21 19 19 19 18 18 19 19 18 18 21 22 25 27 30 31 35 40 44 51 55 59 62 64 65 68 68
39 36 31 26 23 21 20 19 18 18 17 16 14 13 14 15 15 15 15 16 20 22 24 26 29 32 35 39 43 48 52 55 57 59 61 65 67 69
31 29 25 20 17 15 15 15 14 13 11 10 10 11 11 13 14 14 16 18 21 23 28 32 34 37 41 44 45 46 50 53 56 59 63 67 69 69
25 22 20 16 12 10 10 10 9 7 6 7 9 10 11 11 13 15 18 21 25 29 32 32 34 35 37 40 44 49 53 56 59 61 61 60 59 57
19 17 14 11 8 6 5 5 5 8 10 11 10 10 10 10 13 16 20 27 31 30 29 32 37 40 42 46 49 52 54 56 56 49 47 47 44 40

GFSNE_250_spd_018.txt.gz
Wind_Speed
127 130 133 133 134 136 138 142 144 139 131 127 121 123 120 120 124 128 126 125 129 130 128 126 127 122 119 116 108 101 99 97 96 95 93 91 88 89
130 131 134 138 141 144 146 146 146 141 123 118 120 121 126 124 124 125 122 119 119 119 121 124 123 121 118 116 113 108 103 99 97 96 91 91 91 86
134 137 141 145 148 148 148 147 146 145 137 125 118 110 104 109 108 108 105 104 106 108 109 111 111 111 110 108 108 108 105 96 94 93 91 92 90 89
140 146 146 145 146 147 146 145 140 132 119 108 105 104 99 99 94 94 96 95 94 95 96 97 100 98 98 97 99 99 96 92 88 87 90 91 88 87
138 144 142 145 140 138 135 128 120 114 111 104 94 96 94 96 92 91 88 88 89 91 91 92 92 92 93 93 89 87 84 84 83 81 85 92 86 84
143 145 141 134 127 120 116 114 110 105 103 101 96 91 91 92 90 88 85 85 84 87 87 89 91 91 91 88 87 84 83 79 82 77 82 88 83 78
138 131 126 121 118 115 110 107 102 98 96 95 90 85 83 83 85 83 80 79 80 82 82 84 84 84 85 86 82 80 78 77 78 76 78 80 76 75
124 117 117 117 113 107 103 98 94 91 88 85 80 77 76 75 78 78 75 72 71 75 74 75 78 78 77 78 79 78 77 73 74 76 78 76 73 69
116 113 107 103 100 98 94 89 85 84 81 75 71 70 68 70 68 69 69 68 69 73 69 67 71 71 74 74 74 72 72 70 71 71 71 70 67 67
107 100 97 94 92 88 84 81 80 81 81 77 70 61 62 63 63 61 63 62 63 68 66 60 65 67 70 69 69 68 65 65 65 65 66 64 63 62
99 96 91 87 87 85 79 75 73 75 75 72 66 63 55 55 56 54 55 52 55 61 64 58 62 58 59 62 62 61 61 61 62 63 62 61 60 60
94 90 88 86 83 79 74 70 66 66 65 65 59 55 51 50 50 47 50 49 51 57 57 51 53 53 54 54 54 53 57 58 58 57 56 58 59 59
87 81 81 82 78 72 67 61 57 58 60 57 55 48 45 46 45 42 41 44 45 49 45 44 46 46 45 46 45 44 48 48 50 51 53 55 55 57
78 76 73 73 70 64 59 54 51 51 52 50 48 45 41 38 39 37 35 36 38 38 38 38 38 38 39 38 36 37 38 40 40 42 45 47 49 50
74 70 65 65 63 57 51 49 46 43 43 43 41 38 34 34 34 30 30 31 33 33 33 34 33 32 32 31 31 33 32 37 38 39 43 44 46 48
72 69 63 59 54 50 44 42 38 36 36 35 32 31 30 28 25 24 24 25 27 29 29 29 29 30 30 29 29 30 32 33 35 36 39 45 47 51
66 63 59 52 45 42 39 36 32 30 28 27 26 25 23 20 21 21 21 21 22 23 26 27 26 26 26 26 28 31 31 30 32 33 35 40 45 50
60 55 50 44 39 36 33 29 25 24 22 21 20 19 17 15 16 16 15 16 17 18 20 20 21 22 23 26 26 27 28 29 30 34 39 42 47 51
54 46 43 38 32 28 26 23 20 18 16 16 16 14 13 13 12 11 12 14 14 14 15 17 19 21 21 22 21 21 23 27 32 35 39 44 48 51
45 42 36 31 27 24 21 17 14 13 13 12 10 10 10 8 8 8 9 10 11 14 16 17 17 16 17 18 20 23 25 28 33 38 41 45 49 52
41 35 30 25 22 18 15 11 9 9 8 7 6 6 6 8 9 11 12 13 15 14 13 12 15 17 19 22 24 25 29 32 35 39 44 48 53 58
35 29 24 20 16 13 9 6 5 5 5 5 7 9 9 9 10 10 11 12 12 12 14 15 18 20 21 24 29 33 35 38 41 45 49 52 55 58
28 23 18 13 11 7 3 3 6 6 7 7 8 9 9 9 9 10 11 12 13 15 15 17 20 24 27 31 34 37 39 41 44 47 51 54 56 54

GFSNE_250_spd_021.txt.gz
Wind_Speed
114 115 121 126 129 132 137 142 146 142 134 130 135 139 139 139 138 137 136 134 132 132 132 132 128 123 120 122 122 126 118 117 113 106 98 99 96 96
115 120 127 133 136 140 144 148 151 149 135 131 129 123 122 123 122 120 118 114 113 111 110 110 109 106 105 105 102 107 107 107 105 103 98 93 92 91
122 125 130 136 140 147 151 152 152 149 140 121 108 101 99 100 103 100 101 101 97 98 98 96 94 95 98 96 95 95 96 99 98 92 97 91 88 87
125 132 138 144 149 149 148 144 134 126 115 104 99 102 99 98 94 94 94 92 91 93 92 90 89 88 88 88 85 87 88 93 92 90 92 90 82 79
135 141 145 145 144 141 131 123 115 115 112 100 89 94 90 88 86 85 84 83 81 82 84 85 85 84 83 81 80 80 81 83 84 85 85 83 81 73
141 144 144 138 131 121 115 113 111 105 100 94 87 83 82 83 80 78 77 76 76 75 77 80 79 76 75 76 77 77 77 77 78 80 82 78 75 72
144 140 134 125 117 113 108 103 99 97 93 88 81 76 74 75 76 73 68 71 71 69 69 72 69 69 67 69 71 72 75 75 73 74 77 77 74 73
135 130 122 115 113 107 101 98 93 89 84 80 77 75 75 73 70 66 64 63 63 67 61 64 61 62 63 63 64 66 67 67 67 67 71 71 71 72
126 118 115 111 104 99 95 93 93 91 87 80 74 72 68 70 65 61 59 59 58 63 57 59 61 59 59 59 58 59 60 59 59 60 62 65 69 71
118 114 109 102 96 92 89 90 91 91 88 82 73 64 61 63 59 56 56 54 53 58 56 55 55 53 52 54 55 54 54 54 53 54 57 59 63 65
112 108 101 95 90 88 86 85 83 81 77 68 61 59 54 54 54 51 49 48 50 52 49 50 52 47 44 47 48 47 46 48 51 52 54 58 60 62
104 99 95 89 88 86 81 75 72 70 64 59 50 50 49 47 46 45 44 43 45 44 38 43 46 42 40 42 41 42 42 45 48 50 53 54 58 59
97 93 87 87 85 80 73 65 60 58 55 51 48 43 41 40 37 36 37 35 34 32 32 38 41 39 38 36 35 36 39 42 44 46 50 51 55 56
93 86 82 80 75 70 64 60 53 50 48 45 42 36 32 32 30 28 28 29 29 30 31 34 32 31 30 28 28 31 36 38 40 42 45 49 52 54
87 82 77 71 66 64 56 51 45 44 42 37 33 29 25 24 24 24 23 25 25 25 25 26 26 26 25 23 23 27 29 30 33 36 40 44 49 51
83 78 71 64 59 56 51 43 41 40 36 31 25 22 20 19 18 18 18 19 19 20 21 21 21 21 21 22 23 24 25 27 29 32 36 39 40 42
73 67 61 58 53 46 41 38 37 34 29 23 18 16 14 12 13 14 16 17 18 20 19 19 20 21 22 23 24 23 25 26 28 31 33 35 37 40
63 57 54 50 45 39 34 33 31 27 22 18 14 12 11 11 13 15 16 17 17 16 16 16 18 21 21 22 24 25 25 25 27 28 30 33 35 38
55 51 48 43 38 32 30 28 26 21 17 14 11 10 10 12 14 15 15 13 12 12 13 14 15 17 18 18 19 20 20 22 23 27 30 32 34 35
49 45 41 37 31 27 25 23 20 16 14 12 10 9 10 10 10 9 8 7 8 11 12 11 11 13 14 15 17 19 22 24 26 27 30 35 36 38
42 38 33 29 24 22 21 18 15 13 13 11 9 6 7 6 7 7 8 9 9 8 9 12 15 17 18 20 23 25 26 28 29 32 34 36 37 38
36 30 27 23 19 18 17 15 13 11 10 9 9 8 7 8 9 11 12 13 12 13 15 18 19 20 21 23 24 26 27 29 31 33 34 36 38 40
28 25 20 17 16 15 14 11 11 11 11 10 10 10 9 9 9 9 10 11 13 15 17 20 22 24 26 27 28 30 32 34 35 37 39 42 44 46

GFSNE_250_spd_024.txt.gz
Wind_Speed
109 109 110 110 114 119 123 130 137 134 128 123 134 142 144 142 142 137 131 129 132 129 127 126 123 119 119 118 116 116 113 120 117 116 107 112 115 113
107 109 112 115 120 124 131 136 141 148 146 137 138 135 127 123 118 114 109 109 108 109 110 108 107 106 104 102 101 98 96 100 104 109 108 107 111 116
110 116 118 122 127 133 139 143 146 150 154 138 122 113 106 105 102 102 101 100 99 99 99 97 94 95 95 95 95 91 87 86 90 98 96 96 109 109
116 119 124 130 135 139 144 146 148 150 137 120 105 103 103 101 92 89 88 87 87 88 87 86 84 83 83 84 84 85 83 81 82 86 92 88 102 88
120 125 131 137 141 146 147 148 144 126 118 109 99 96 91 93 86 84 84 84 82 82 81 81 78 76 76 75 75 76 78 78 77 79 83 84 89 92
127 133 139 144 146 146 145 136 122 114 110 100 94 89 90 89 84 79 77 79 77 77 76 73 71 70 69 68 67 68 70 72 72 73 76 77 83 82
133 140 145 147 144 137 123 116 113 109 101 95 92 87 86 86 83 78 72 72 74 76 71 68 67 65 63 60 60 61 62 62 64 65 67 68 72 75
140 144 147 142 130 120 115 111 107 101 96 92 87 81 79 79 75 71 67 64 67 72 60 64 59 58 56 54 53 54 52 54 54 57 61 64 68 69
146 146 139 127 117 111 108 103 101 98 91 83 74 71 70 70 66 64 58 57 58 58 50 59 51 51 50 47 47 46 44 45 48 52 54 58 64 69
144 136 124 115 108 103 96 94 94 91 82 75 69 64 61 58 56 56 52 50 48 46 47 50 43 45 41 42 42 40 38 42 45 48 51 56 61 65
135 125 114 106 101 93 88 86 85 81 76 68 60 58 55 49 47 46 45 43 38 38 38 38 36 38 39 39 36 34 36 41 44 47 48 50 54 58
121 112 105 100 94 89 84 79 74 71 67 64 56 50 48 44 41 39 38 35 29 28 31 34 34 35 36 36 34 34 35 38 40 45 47 48 49 53
109 104 97 92 87 83 77 70 64 62 60 54 51 47 42 38 33 31 30 26 26 27 31 32 33 33 33 35 32 32 34 36 40 43 43 43 47 49
101 95 89 84 81 76 69 63 59 55 51 47 43 39 34 30 26 25 24 23 23 25 27 26 28 30 28 28 27 29 32 35 38 40 42 43 46 49
94 89 84 80 74 68 61 57 52 49 43 39 36 32 27 24 23 22 21 20 20 21 23 24 25 23 20 22 24 27 28 30 33 36 38 41 43 44
86 84 79 73 66 61 57 51 47 43 39 34 30 26 23 21 20 19 18 18 18 18 18 17 17 18 18 20 23 24 24 28 32 33 36 38 40 43
78 74 70 64 58 54 49 43 40 36 33 28 24 22 19 18 17 16 15 14 14 14 15 14 14 15 16 18 19 19 21 25 27 28 30 33 36 37
72 67 61 55 50 45 41 38 33 31 27 24 21 19 17 16 15 15 14 13 13 13 14 13 12 13 15 16 16 18 22 24 25 26 29 31 33 36
64 59 52 46 43 38 35 31 28 25 22 20 18 17 16 15 15 14 14 13 12 11 11 10 11 12 14 16 18 20 22 24 24 27 30 31 33 38
56 50 44 40 35 32 27 25 22 21 19 17 16 16 15 14 14 13 10 8 6 5 6 7 8 10 14 17 20 21 22 23 25 27 29 33 36 38
47 41 37 33 29 23 21 20 20 18 16 16 15 14 13 13 12 11 10 7 6 6 6 8 8 10 12 16 19 22 23 24 26 28 29 30 33 37
38 34 31 26 21 18 18 18 16 15 14 14 13 14 13 13 12 11 11 11 12 12 12 11 12 12 13 14 16 19 22 24 26 27 29 30 35 37
30 27 24 19 16 15 15 14 14 13 14 14 13 13 12 13 13 14 14 14 14 13 14 15 17 18 18 20 21 23 23 24 27 29 31 33 36 38

GFSNE_250_spd_027.txt.gz
Wind_Speed
98 101 105 106 108 108 111 116 120 116 113 116 123 129 136 143 146 149 145 143 140 136 131 123 120 117 113 113 113 111 109 109 110 111 116 116 119 125
103 106 105 105 108 113 117 122 128 133 130 126 130 135 136 139 137 131 124 117 111 111 108 106 105 103 102 97 99 100 99 97 96 98 99 108 104 102
104 103 104 110 115 119 124 129 133 139 143 134 132 134 133 121 116 108 103 101 101 99 97 96 96 95 94 90 88 89 87 87 89 91 94 95 102 101
101 106 111 117 121 126 130 134 139 141 142 139 131 120 109 104 98 94 93 92 90 91 91 89 89 89 89 85 82 81 80 77 78 81 85 89 93 94
108 114 119 123 127 132 136 139 139 139 138 125 107 99 95 95 89 88 85 87 88 86 82 79 78 81 82 79 76 75 74 72 71 72 76 79 84 89
115 121 126 131 136 139 139 142 139 128 118 107 97 92 89 88 85 83 84 85 83 81 72 72 72 73 74 75 71 69 68 66 65 66 68 73 76 81
123 129 133 139 140 141 141 135 122 113 104 96 91 87 85 83 82 81 75 75 78 71 62 65 64 65 69 69 66 63 60 59 58 60 63 65 70 76
130 135 139 142 142 139 127 119 108 102 95 88 84 81 80 80 77 73 69 66 68 58 54 61 49 56 59 60 59 57 53 52 53 55 59 62 65 71
137 140 141 142 133 118 110 105 102 97 90 81 76 76 72 72 66 65 61 56 55 54 50 46 41 45 45 48 49 49 48 47 49 51 55 57 62 67
142 144 136 123 113 105 97 94 94 91 84 79 73 68 64 62 58 55 53 50 45 45 43 38 39 35 38 40 41 42 43 44 47 50 51 53 58 62
144 133 117 107 102 96 90 87 85 83 80 74 66 61 60 54 50 50 45 44 41 41 39 35 34 32 32 33 35 38 40 43 45 46 48 50 54 59
128 115 106 98 95 89 84 79 77 76 73 69 62 55 52 49 46 44 40 37 36 34 32 29 28 27 28 30 32 35 38 41 43 44 46 49 54 58
110 104 99 94 88 83 78 75 71 68 65 60 57 52 46 43 40 37 34 30 28 25 22 21 19 20 23 26 29 32 35 38 41 43 45 47 51 56
101 98 92 85 81 76 73 69 64 60 56 51 49 44 39 36 34 31 28 25 22 20 17 16 15 18 21 22 22 26 31 36 40 43 44 44 48 54
95 90 84 79 76 73 67 61 56 51 47 44 41 36 32 30 27 24 22 20 17 15 14 12 12 14 17 19 22 25 27 31 34 36 37 40 46 51
88 83 78 75 71 68 61 54 49 45 41 37 33 29 27 25 22 20 18 16 13 12 10 10 11 13 16 18 22 24 26 28 29 32 35 37 43 47
78 75 71 68 64 57 52 48 42 38 34 29 26 22 22 21 20 18 16 15 13 11 9 7 8 11 13 15 17 18 22 24 26 28 30 35 40 42
73 69 65 60 53 48 45 39 36 31 26 23 20 19 19 19 17 16 16 13 12 10 7 6 7 10 11 13 15 18 20 22 23 25 28 30 35 38
66 62 57 51 45 40 35 31 28 23 21 19 18 17 17 16 16 16 14 12 10 6 5 4 5 9 12 14 15 16 19 21 24 27 30 32 33 35
60 54 48 42 37 33 29 25 21 19 17 16 15 15 15 14 13 11 10 7 6 5 4 2 3 6 9 13 15 17 18 19 21 24 29 32 34 36
52 45 39 35 32 28 23 20 18 17 16 16 16 16 15 14 12 11 8 6 4 5 5 3 4 4 6 10 14 16 17 20 22 24 24 27 30 34
44 38 33 29 26 22 20 18 17 17 17 17 18 19 19 17 16 15 14 13 10 7 7 7 7 8 8 8 8 10 15 19 22 23 25 28 29 31
36 32 28 24 20 19 19 18 18 19 19 19 20 20 21 22 20 19 17 16 16 14 12 11 11 12 14 16 16 15 14 15 18 21 24 27 30 33

GFSNE_250_spd_030.txt.gz
Wind_Speed
90 93 96 98 100 105 108 109 107 99 94 101 108 115 123 130 134 139 140 140 141 142 140 138 136 133 129 130 129 126 121 119 121 122 123 123 127 134
95 96 98 102 106 109 108 108 113 116 111 111 118 123 128 132 137 139 138 135 132 129 126 122 117 114 112 110 109 108 107 103 102 101 102 104 103 110
98 101 106 108 109 107 109 113 118 126 130 121 126 130 130 130 128 127 123 114 109 109 110 107 104 102 100 98 98 99 97 93 92 92 92 93 94 96
103 107 108 108 108 111 116 121 127 132 136 134 126 125 121 114 110 104 100 100 99 98 96 94 93 89 87 88 89 90 90 87 83 82 81 85 87 88
107 107 106 111 113 119 125 130 133 133 133 129 119 112 105 103 97 96 93 96 95 90 84 86 82 82 83 84 85 86 87 85 80 76 77 77 80 80
106 110 112 117 124 129 131 131 129 127 121 113 108 102 98 96 93 87 85 88 86 81 78 79 76 74 74 73 74 77 78 77 75 70 71 72 75 75
110 116 122 128 131 133 132 127 120 112 110 104 98 95 92 89 85 83 77 78 81 70 68 75 64 66 65 65 66 68 70 68 67 66 67 68 69 70
117 123 129 132 133 130 124 115 111 109 101 94 90 86 85 80 78 75 70 69 71 60 65 66 57 60 58 55 56 60 60 60 60 60 60 63 67 66
126 130 133 132 127 116 109 107 105 104 98 89 81 79 75 73 69 69 62 59 60 57 57 52 47 50 50 48 48 50 51 51 53 55 58 60 62 64
134 135 131 121 113 110 102 98 97 95 89 82 75 69 66 65 60 59 55 52 50 49 48 44 43 41 40 41 41 42 44 45 48 53 57 59 61 61
138 133 121 113 107 101 94 88 85 83 79 73 66 62 59 55 52 52 47 44 44 41 39 37 35 34 33 32 34 36 38 39 43 49 54 58 58 59
124 119 114 106 100 91 85 79 75 74 71 68 61 55 50 47 44 41 42 39 37 33 31 28 27 26 27 26 26 28 31 35 39 44 48 51 52 54
113 107 102 95 88 83 78 73 68 66 63 58 54 48 43 40 37 36 34 32 29 27 24 21 21 20 20 20 18 21 25 31 36 40 43 47 49 53
104 98 89 84 80 76 71 67 63 57 54 50 45 41 37 34 32 31 28 26 23 21 19 17 16 15 14 14 16 17 18 23 28 33 38 42 45 48
96 89 83 78 74 69 64 60 55 51 46 41 38 36 32 30 28 26 25 22 18 16 16 15 13 11 9 9 11 15 17 20 25 30 35 38 41 43
87 83 78 72 67 63 57 53 49 43 39 36 32 30 28 26 23 21 19 17 17 14 12 11 10 9 8 7 9 11 18 21 25 30 33 35 38 40
79 75 70 66 61 55 51 47 41 38 35 31 28 26 24 22 20 18 16 15 13 13 11 9 8 7 6 6 9 12 15 23 24 25 26 30 32 34
73 68 64 59 55 49 45 40 36 33 31 27 25 23 21 20 17 15 15 14 11 9 8 7 6 6 6 5 8 11 15 18 22 25 26 27 29 32
66 62 58 53 48 43 38 34 32 31 27 25 23 22 20 18 16 14 13 12 8 7 5 5 5 4 5 7 8 10 13 17 20 23 26 27 28 31
60 56 51 46 42 38 35 32 30 29 26 25 24 21 19 17 16 15 13 11 8 5 6 3 4 5 7 7 9 12 13 14 17 22 25 27 30 32
53 49 44 39 35 33 31 29 28 27 26 24 21 20 19 17 16 15 13 12 10 8 5 4 4 5 8 10 11 11 12 14 16 18 24 29 31 34
47 42 37 34 31 29 27 27 27 26 25 24 22 21 20 19 18 16 14 11 11 12 11 8 7 7 10 13 14 15 15 15 16 18 22 25 31 36
39 35 32 29 28 27 27 26 26 26 25 25 24 22 23 23 21 18 16 14 12 11 11 11 11 11 10 13 16 17 18 18 19 21 22 25 29 31

GFSNE_250_spd_033.txt.gz
Wind_Speed
88 90 94 98 102 104 103 99 97 91 89 98 102 107 110 114 119 123 125 127 132 137 139 141 143 144 143 142 140 139 138 136 134 135 134 134 137 136
93 97 101 103 103 103 103 104 105 105 96 100 105 110 114 120 127 134 136 139 141 142 143 142 140 137 133 128 124 122 119 118 118 116 116 114 116 118
99 100 101 102 103 106 106 107 108 113 114 106 115 120 124 129 134 137 138 137 135 133 129 123 120 118 113 110 109 107 107 106 105 104 104 101 98 98
100 102 104 107 107 107 107 111 116 121 126 125 123 126 129 131 129 123 118 116 115 113 111 107 104 99 98 97 97 96 96 95 95 94 93 93 91 92
103 105 105 106 107 111 115 119 124 128 131 132 124 119 112 110 106 104 104 107 103 98 94 93 90 89 89 87 85 85 85 85 84 84 84 82 83 83
104 106 108 111 115 119 122 126 129 130 126 120 110 101 100 97 96 93 93 95 91 88 86 83 82 82 79 77 78 79 78 78 78 78 79 79 79 78
107 111 116 121 124 127 129 128 123 115 109 103 98 96 94 89 87 86 82 83 81 77 79 78 74 71 70 69 68 68 68 68 68 68 68 70 72 74
113 118 123 126 130 131 124 113 109 104 98 93 91 85 84 82 80 77 75 73 72 68 70 73 65 65 63 62 60 60 61 61 59 59 59 60 62 66
121 124 129 133 126 114 109 106 104 101 96 88 82 80 77 74 73 71 68 65 63 61 62 64 53 58 56 57 54 54 53 53 52 49 51 52 57 63
128 132 129 118 111 106 100 98 97 93 88 83 77 74 71 68 66 63 59 55 53 53 56 56 49 49 49 48 46 45 44 45 43 42 45 48 53 59
131 124 115 108 103 99 94 90 87 84 80 75 71 67 63 59 55 53 52 51 48 46 45 45 43 41 39 36 37 35 34 35 34 34 37 41 47 52
118 111 107 102 97 92 86 81 78 74 71 67 62 57 53 50 48 47 46 44 43 40 37 35 36 31 27 27 27 26 26 26 25 25 29 33 36 40
109 103 99 93 88 82 78 73 69 67 63 58 54 49 47 44 41 39 38 38 34 31 32 28 27 24 21 21 20 19 19 19 17 19 22 26 31 38
101 97 90 84 80 75 70 67 63 59 55 50 47 45 41 38 35 35 33 30 29 27 24 23 21 19 16 16 14 13 13 12 13 15 19 24 30 36
97 89 82 78 73 67 64 60 56 51 46 42 39 37 35 33 32 31 30 28 24 21 20 19 17 14 12 12 11 10 12 12 13 15 18 23 27 32
87 82 78 72 68 63 58 52 47 43 40 35 33 32 31 31 30 29 28 25 22 18 17 15 12 10 8 8 9 8 10 13 14 16 18 20 22 27
78 75 71 67 61 56 51 44 40 36 34 33 31 30 29 27 27 26 24 22 18 17 14 13 10 7 6 5 8 10 9 13 15 16 17 20 24 27
74 70 65 59 54 49 42 38 34 32 31 29 28 26 25 25 23 22 20 18 16 15 12 11 9 6 4 4 7 12 14 14 17 19 21 22 23 27
69 64 59 54 47 41 36 33 31 29 27 26 26 25 23 21 21 20 20 17 14 11 8 9 8 6 5 5 7 10 13 15 19 22 23 26 28 30
63 57 52 46 40 36 33 31 29 29 27 25 24 23 23 22 20 19 18 16 15 12 8 4 6 5 6 8 8 10 11 14 17 20 25 28 30 32
55 51 44 38 35 32 30 29 28 26 25 24 24 24 24 23 21 19 18 18 15 14 13 7 2 4 7 8 10 11 12 13 16 18 22 26 29 32
48 42 36 34 32 30 29 28 26 23 22 24 24 23 24 24 24 23 20 17 16 15 13 11 7 5 8 12 13 15 14 14 16 17 20 23 26 29
40 34 32 31 30 30 28 27 21 20 23 23 23 24 27 28 26 24 22 19 19 17 15 13 11 9 10 13 15 16 17 17 17 17 19 22 23 23

GFSNE_250_spd_036.txt.gz
Wind_Speed
92 90 90 93 96 99 101 100 95 86 87 92 96 100 102 106 110 113 115 117 119 122 123 124 127 130 132 133 134 135 135 134 134 135 136 136 138 138
92 95 98 99 101 100 99 100 101 99 90 94 99 104 108 113 117 123 125 127 129 132 133 134 134 134 135 135 136 135 134 135 136 137 137 139 140 140
98 99 101 99 99 100 101 102 103 108 109 105 112 117 120 123 127 129 131 132 131 133 129 125 121 119 118 118 117 116 114 112 111 111 112 112 112 112
99 100 101 101 102 102 104 107 111 118 123 122 121 125 127 128 124 119 115 113 111 111 109 108 107 105 105 104 103 103 102 102 101 101 100 100 99 100
100 101 101 102 104 107 113 118 123 126 129 130 122 118 113 112 106 105 105 104 101 99 98 94 90 90 91 92 90 91 90 91 92 94 94 94 94 94
102 103 106 110 114 118 121 125 127 128 124 119 111 104 100 97 95 91 93 92 88 88 85 82 82 82 79 77 76 76 78 79 80 82 82 83 83 83
104 110 114 119 123 126 130 127 122 115 110 102 98 95 92 89 86 85 82 81 80 77 77 78 74 73 71 69 71 72 72 72 71 71 72 74 76 77
111 117 121 124 127 130 124 118 113 103 96 92 89 86 86 81 79 76 72 72 71 66 70 72 64 66 63 62 62 62 63 60 59 59 61 63 65 67
120 123 125 129 124 115 110 105 102 98 91 84 82 81 79 75 71 68 65 64 61 60 61 59 57 55 54 53 51 52 51 50 51 51 51 53 56 60
126 129 127 118 111 104 99 97 93 87 83 80 76 74 70 68 64 61 59 55 52 51 53 50 50 45 43 44 43 42 44 45 45 45 44 45 49 51
128 126 116 107 101 98 93 87 82 79 76 72 69 66 63 60 58 54 50 48 45 43 44 43 40 39 34 38 35 37 38 38 38 38 38 38 40 43
122 115 107 102 97 91 83 78 76 71 69 64 60 58 55 51 49 47 46 42 40 38 36 35 33 35 28 34 29 32 32 32 31 29 31 32 35 39
113 104 100 95 90 83 77 72 68 64 61 59 54 50 47 44 41 38 36 37 34 32 33 31 29 29 27 25 27 27 25 24 21 22 24 27 29 32
106 99 94 86 80 77 72 67 62 59 54 50 47 44 41 37 35 33 31 31 31 30 28 26 24 23 23 21 21 21 19 16 15 16 18 20 23 27
100 93 85 80 76 70 65 61 57 52 47 44 40 37 36 33 31 30 28 26 28 26 24 22 22 20 19 17 17 16 14 10 10 10 11 13 17 22
93 86 81 77 71 65 60 57 52 46 41 37 35 33 32 30 29 28 27 23 23 23 20 20 19 17 16 13 12 12 10 7 6 9 11 13 16 18
83 79 76 69 64 60 56 51 46 41 36 34 32 30 30 30 30 28 27 23 21 20 18 16 15 14 13 9 8 9 8 5 6 9 13 16 19 20
77 75 69 63 59 54 50 44 40 36 33 31 30 29 29 28 28 28 27 24 19 16 17 15 12 10 9 6 6 5 7 3 6 11 14 18 20 23
74 69 62 58 54 50 44 39 36 34 31 28 27 27 27 28 27 27 26 23 21 14 13 14 11 8 6 5 4 4 5 6 8 12 15 20 21 23
69 62 58 53 49 44 40 36 34 30 28 26 26 27 28 28 27 27 26 25 21 16 11 12 11 5 5 6 6 7 6 7 8 11 15 19 25 28
60 57 53 48 43 39 36 33 31 29 26 25 27 29 30 31 30 28 25 25 25 19 12 10 10 7 4 6 7 10 10 10 11 12 15 18 21 26
54 50 46 42 39 36 33 31 29 29 29 30 32 32 33 33 32 27 26 24 21 22 16 11 11 8 6 7 9 10 13 13 14 16 17 17 20 23
48 43 40 37 36 34 31 28 28 29 30 31 30 29 30 33 33 28 20 18 18 19 17 13 12 10 8 8 10 11 12 15 15 16 21 23 22 23

GFSNE_250_spd_039.txt.gz
Wind_Speed
108 111 101 97 97 100 102 101 97 87 88 94 95 98 100 103 106 110 112 113 115 119 122 122 123 124 124 124 122 124 124 125 125 126 125 125 124 125
112 100 100 101 102 100 98 101 104 101 92 95 98 104 109 113 117 119 120 123 125 126 128 129 128 127 128 128 129 130 131 130 131 132 133 133 133 133
102 103 103 99 98 101 101 102 106 111 111 107 115 118 119 122 123 122 120 117 117 119 117 115 113 112 111 112 113 115 116 116 117 117 116 119 121 124
105 101 99 100 99 101 104 109 114 120 125 124 122 123 125 119 112 108 104 101 99 101 102 101 101 101 101 100 100 101 102 103 102 101 101 102 101 102
100 99 98 99 104 109 114 119 123 126 130 128 119 115 110 105 100 97 94 93 91 91 88 89 89 89 89 89 88 88 90 91 92 92 92 93 93 94
97 97 102 107 113 118 121 125 128 130 123 113 108 103 100 96 92 87 85 82 81 78 81 81 78 79 79 78 79 78 78 79 80 82 83 83 83 83
98 104 111 116 121 124 127 130 128 117 107 101 100 95 91 86 83 81 77 77 75 72 75 71 69 71 71 72 71 72 71 72 73 73 74 74 74 75
105 112 118 122 125 129 129 124 116 104 95 92 92 86 84 80 78 75 72 68 68 62 69 64 62 65 63 61 60 63 64 63 63 63 63 65 68 70
114 119 122 126 129 124 118 112 105 98 91 86 85 81 79 74 71 68 65 61 58 60 61 57 54 53 52 51 51 54 53 52 54 54 56 58 59 61
121 125 127 128 123 115 107 101 97 92 86 82 79 75 71 68 64 61 59 54 48 48 50 51 50 45 39 43 43 42 42 44 45 46 47 48 50 54
124 128 128 120 113 105 97 93 89 85 80 75 70 68 64 60 58 55 51 47 43 40 40 40 41 41 33 37 35 34 36 38 38 39 40 41 43 45
126 126 119 112 104 97 92 87 84 79 74 68 64 60 57 53 49 47 47 45 42 39 34 34 33 36 28 32 31 28 29 30 30 32 33 36 37 40
124 115 110 103 96 92 87 82 78 73 67 62 57 53 50 47 43 41 40 40 39 34 33 32 31 28 27 26 27 27 25 25 25 26 27 29 32 35
114 108 101 95 90 84 81 76 72 66 60 55 51 48 45 42 40 37 35 33 35 35 33 30 29 26 24 24 23 23 21 21 20 21 21 22 24 27
109 101 93 88 82 79 74 70 64 58 53 49 45 43 41 39 36 34 33 31 32 34 30 28 27 25 22 21 20 21 18 16 16 16 15 17 19 21
100 93 87 81 78 74 68 62 57 52 48 44 40 39 38 37 36 34 31 29 25 28 28 26 23 22 17 18 17 17 13 11 10 11 11 13 15 18
89 86 80 77 73 67 61 56 50 46 42 40 40 39 38 37 36 35 32 30 27 24 25 23 19 18 15 14 14 13 8 7 5 5 6 9 14 17
84 79 76 72 66 59 53 49 46 44 42 41 40 39 38 37 35 33 34 32 26 23 21 20 17 15 13 11 11 10 4 4 2 1 6 12 16 18
78 75 71 66 59 53 50 47 44 43 43 42 42 40 38 36 37 35 33 31 26 20 18 16 15 12 12 9 9 7 2 2 4 4 6 15 19 21
75 71 65 59 54 50 46 44 42 41 41 41 41 40 39 39 39 38 35 30 26 19 17 14 13 10 8 7 7 6 1 4 7 7 6 15 22 25
69 65 59 53 49 46 43 42 41 39 40 41 40 38 37 37 36 33 29 26 24 17 14 11 10 8 6 4 5 3 2 5 8 10 10 13 19 26
63 58 52 49 46 42 40 38 35 38 39 40 39 37 35 34 33 33 29 21 18 14 11 9 7 7 4 3 3 1 3 8 9 12 14 15 18 23
56 51 48 45 41 39 39 37 36 37 39 37 35 34 33 33 34 31 23 15 15 12 9 8 7 8 5 6 4 5 6 10 12 13 17 20 19 23

GFSNE_250_spd_042.txt.gz
Wind_Speed
97 101 105 110 115 120 114 109 109 97 89 93 96 100 104 107 112 115 118 121 121 124 128 128 127 123 121 120 119 119 120 122 122 121 120 119 116 116
102 106 111 116 122 114 113 110 106 103 96 98 101 108 112 117 120 120 120 120 118 117 115 114 114 115 115 114 114 116 118 121 124 126 128 128 126 128
107 112 117 121 113 113 107 103 106 110 110 106 115 120 123 127 124 115 107 104 104 103 99 98 99 100 102 103 103 103 104 104 105 109 114 118 123 127
112 116 121 112 112 107 103 107 111 117 121 121 123 127 132 125 112 106 99 95 92 92 91 91 91 90 90 92 93 94 96 97 98 98 99 101 104 108
116 117 111 110 105 102 108 113 119 124 127 129 130 130 119 111 102 95 90 86 82 81 81 80 78 79 81 81 82 83 84 86 88 90 90 90 92 94
114 111 107 103 103 108 115 120 125 128 130 132 125 114 107 99 93 85 85 79 75 75 75 71 69 71 70 73 73 73 74 76 78 80 80 81 83 86
110 103 100 103 110 116 121 126 130 132 128 117 111 102 96 91 85 80 76 73 70 69 69 64 64 62 62 64 66 68 68 68 69 69 70 71 74 76
97 96 103 110 116 123 128 132 135 124 112 105 100 93 87 82 78 74 71 66 65 62 62 56 59 55 56 55 57 58 59 57 58 58 61 63 65 67
96 103 109 117 123 128 130 133 126 114 104 96 91 85 81 76 71 67 62 60 58 57 59 50 53 49 48 50 48 51 51 50 51 53 54 55 58 60
103 110 117 123 128 129 129 123 113 102 95 88 82 78 74 68 65 61 58 52 47 48 50 48 49 43 44 43 40 42 44 44 43 44 48 49 51 55
110 118 124 127 128 127 117 106 99 93 86 80 75 72 67 61 58 56 51 49 46 41 43 41 43 43 39 40 38 36 37 38 38 40 41 42 44 46
116 123 127 128 124 116 103 96 91 84 79 75 69 64 59 56 51 49 48 48 46 43 37 36 35 37 39 29 32 32 32 32 31 33 35 37 38 40
122 126 127 121 113 104 97 90 82 79 74 69 64 59 54 50 48 45 43 42 45 40 36 37 34 29 29 32 26 28 27 27 27 27 30 32 33 35
125 126 118 110 103 96 90 82 77 73 68 63 58 54 52 48 44 41 40 38 38 41 37 33 30 29 28 25 25 22 23 22 22 24 25 26 27 29
126 115 106 100 94 87 80 76 71 66 61 56 52 50 49 48 45 41 37 35 32 34 31 31 28 26 25 23 22 19 17 19 20 20 20 20 20 22
111 103 97 91 84 78 75 70 64 59 54 51 48 46 44 42 42 40 35 31 28 27 30 26 25 22 18 19 16 15 15 17 15 14 14 13 13 13
98 94 88 81 76 72 66 61 57 52 50 48 46 45 43 40 38 36 34 31 32 26 25 22 21 17 15 15 12 11 13 11 12 10 10 13 13 11
92 86 79 75 72 67 60 53 49 47 44 43 43 43 43 42 39 36 33 32 31 27 23 19 17 14 13 12 9 8 10 7 10 6 9 12 10 5
84 77 73 70 65 58 53 50 47 44 44 43 44 45 43 40 38 36 33 30 28 21 19 18 14 11 9 7 6 7 6 7 4 7 8 7 2 7
77 73 70 64 58 53 49 47 44 42 40 40 41 43 43 39 32 28 23 22 20 15 16 15 12 8 5 3 3 4 5 7 8 11 9 6 9 12
72 69 64 57 52 48 47 44 43 42 41 41 41 40 39 35 30 27 24 21 18 13 13 12 9 5 2 1 3 5 6 9 11 14 14 14 15 18
69 63 56 51 48 46 44 42 41 42 42 40 38 37 35 31 27 25 23 20 12 11 10 10 8 5 4 4 6 6 8 12 13 16 17 19 21 25
61 54 50 46 44 42 40 40 42 42 41 39 36 34 33 31 28 24 21 16 10 8 8 8 9 7 8 9 10 8 10 15 16 18 19 23 23 27

GFSNE_250_spd_045.txt.gz
Wind_Speed
86 90 93 96 99 102 104 108 110 108 111 114 112 112 105 105 109 111 115 118 122 125 124 124 122 121 120 118 116 116 116 117 119 120 121 119 118 119
92 97 99 101 104 106 109 113 118 121 105 109 100 102 106 112 114 118 121 121 123 119 111 105 105 106 105 105 104 103 103 104 105 106 109 113 117 122
98 100 101 103 107 110 115 120 117 117 108 94 103 108 115 120 123 121 119 112 104 102 99 98 97 94 94 93 93 93 93 94 94 94 96 99 104 109
99 101 103 107 112 116 120 112 116 108 108 106 109 117 124 129 126 118 109 101 96 90 89 89 86 86 86 86 85 85 85 86 86 87 87 89 92 95
101 104 109 113 117 117 112 109 103 108 114 117 119 128 131 128 115 106 98 92 87 84 83 80 77 80 78 77 78 78 78 77 77 79 80 80 81 84
106 110 114 117 112 113 103 101 108 114 117 122 129 133 127 113 103 93 92 85 81 79 79 72 71 70 68 69 71 71 71 70 70 69 69 70 72 75
112 116 114 111 108 98 101 109 116 120 123 128 131 118 108 100 94 88 82 81 76 74 74 64 66 60 61 63 64 65 65 65 63 63 63 64 66 69
112 109 111 99 94 102 111 118 124 127 128 125 113 104 99 93 89 82 79 74 71 63 71 56 60 52 54 56 58 58 58 57 57 59 55 55 60 63
109 101 93 95 103 110 117 124 130 132 125 111 102 97 92 85 83 78 71 66 61 59 65 53 52 45 48 49 51 52 54 50 49 51 52 51 52 55
95 92 95 102 112 117 121 127 132 124 110 102 95 88 83 79 74 70 66 62 54 46 55 54 49 41 43 43 43 44 47 43 42 44 46 46 46 47
93 97 104 112 118 121 125 127 120 109 101 94 86 80 76 70 67 64 59 53 52 42 44 44 45 42 39 38 40 38 40 41 37 38 40 42 42 42
96 104 112 118 121 126 125 115 106 101 93 85 79 73 68 62 57 54 52 48 46 47 37 41 37 38 37 30 33 33 33 33 35 35 36 37 39 40
103 111 118 122 125 123 113 105 99 90 83 78 73 69 62 56 52 46 45 43 44 43 37 38 35 31 34 41 29 25 31 29 29 32 33 34 36 37
111 117 121 124 118 109 103 96 88 81 76 71 66 60 56 51 48 44 40 37 36 42 31 30 32 33 32 32 27 25 25 28 26 27 28 28 28 30
119 122 124 116 106 100 92 84 79 75 70 66 60 54 49 46 43 37 32 32 27 33 32 27 30 28 29 30 26 27 23 21 21 23 23 23 24 24
120 122 112 103 97 89 81 77 73 67 63 59 54 50 48 44 41 42 37 32 26 23 33 29 28 26 24 25 23 23 22 17 18 21 19 17 19 20
116 107 99 95 84 77 72 68 64 59 54 49 47 46 46 44 44 45 40 34 29 22 22 31 25 22 22 19 18 19 16 15 16 16 15 15 11 9
103 96 91 81 75 73 68 62 56 51 46 44 42 43 46 47 45 42 36 29 23 21 24 23 21 19 18 15 14 12 12 12 11 11 11 7 6 3
93 88 78 72 70 66 61 56 51 46 42 41 43 45 47 45 42 37 28 20 19 16 20 20 17 15 13 12 10 8 8 8 7 6 6 5 5 1
85 76 70 68 64 59 54 49 45 43 44 45 46 45 42 40 34 29 23 18 17 17 21 18 16 13 9 8 6 3 2 3 3 6 7 6 6 7
74 68 67 63 58 52 47 43 43 45 47 47 45 41 37 33 29 25 21 15 15 17 18 16 13 10 7 6 5 3 3 1 5 8 8 8 7 12
67 65 62 57 51 46 42 41 43 45 46 44 39 36 33 28 26 25 18 14 13 14 10 9 9 8 8 7 7 7 7 5 8 10 11 10 11 14
62 60 56 51 44 41 41 42 45 46 43 39 38 34 28 25 26 21 13 10 12 9 6 6 8 9 10 10 9 11 10 9 12 13 13 13 14 15

GFSNE_250_spd_048.txt.gz
Wind_Speed
73 76 80 85 89 92 96 100 102 100 103 109 111 115 120 121 119 118 116 107 108 112 115 119 124 128 127 124 120 118 116 114 114 113 114 114 115 115
77 82 87 91 95 98 102 105 108 107 103 113 116 119 118 119 118 107 106 111 117 121 123 123 122 118 112 109 107 105 103 101 100 100 101 102 104 105
83 88 92 96 100 104 107 110 111 114 115 112 112 116 114 109 107 110 115 120 123 124 121 116 111 103 98 94 93 92 91 90 90 89 88 90 91 92
89 94 98 101 105 108 111 112 117 119 113 110 101 101 106 111 116 120 125 126 120 113 105 102 97 92 91 86 85 84 84 83 82 83 82 83 84 84
95 98 102 106 109 110 114 118 115 116 110 101 100 106 111 118 122 125 124 113 105 98 93 93 84 83 83 81 81 80 79 76 75 75 75 75 77 78
98 102 105 108 111 114 114 112 112 103 104 106 107 111 119 124 123 116 109 100 94 87 86 86 77 77 72 74 76 75 72 69 67 67 68 69 70 71
101 103 107 112 115 111 113 106 101 105 108 110 116 122 125 125 115 102 95 91 85 78 82 81 72 71 65 66 69 66 65 64 63 63 62 62 61 64
103 108 113 110 112 109 101 101 107 109 111 116 122 124 123 109 101 94 88 85 81 70 73 75 63 63 59 58 60 59 58 57 57 56 56 57 56 55
109 109 108 109 100 96 99 106 112 116 119 123 124 119 105 98 94 89 84 80 74 67 64 68 56 56 52 53 54 55 53 52 53 52 50 52 52 50
106 109 102 95 96 100 104 111 117 121 125 124 114 102 95 90 86 83 78 74 67 58 53 59 50 53 48 46 48 51 49 49 50 48 46 45 47 47
105 96 92 97 102 106 110 115 121 124 123 110 101 94 88 83 78 75 70 64 64 59 48 50 44 51 49 41 43 47 45 46 46 46 44 41 41 43
91 91 97 101 106 112 115 120 124 121 109 101 93 85 79 74 68 63 59 60 57 60 47 50 40 41 53 34 37 42 41 40 41 42 43 41 39 40
89 96 101 106 112 116 120 123 118 107 100 92 86 79 73 66 60 56 51 50 50 51 50 50 43 38 42 42 32 39 34 38 38 38 37 37 36 36
95 102 107 112 117 120 121 115 104 97 89 84 79 72 66 61 58 54 47 45 39 47 52 48 46 39 37 34 39 35 25 31 32 31 31 31 31 33
103 109 114 117 120 117 110 101 95 87 81 77 71 66 62 58 54 52 43 39 34 42 48 49 46 38 36 33 38 35 30 25 27 27 27 28 27 29
108 114 117 118 114 105 98 91 84 79 74 69 65 61 57 54 50 49 47 41 41 38 41 45 44 38 31 32 37 30 28 28 22 25 26 26 24 26
112 114 115 109 101 95 88 81 75 70 65 60 57 54 50 50 49 52 49 45 42 37 31 39 39 35 31 32 32 26 25 25 24 24 23 22 20 21
113 111 103 97 92 86 79 74 68 63 58 54 51 49 49 51 51 49 46 41 35 29 29 30 29 27 27 27 23 21 21 20 20 21 19 18 15 16
106 99 93 88 82 76 70 66 62 56 53 51 50 51 52 51 50 46 39 31 28 25 25 28 27 25 23 20 17 17 17 17 16 15 15 11 10 10
94 89 84 79 72 66 62 60 55 52 51 51 53 53 51 46 42 38 33 24 24 24 26 26 24 22 18 16 13 13 12 11 12 12 9 8 4 4
87 81 76 71 65 59 56 53 51 51 53 55 54 50 45 42 36 31 26 24 22 23 23 21 17 14 12 10 9 9 7 6 9 7 8 7 9 6
78 73 69 64 57 54 51 49 49 52 53 52 47 43 39 35 30 25 24 21 21 19 16 11 10 8 7 6 6 5 2 4 6 9 11 11 12 11
70 65 61 55 52 50 46 47 50 51 48 45 43 37 31 26 23 22 19 17 16 11 8 7 5 5 5 4 4 3 5 2 5 14 13 15 17 18

GFSNE_250_spd_051.txt.gz
Wind_Speed
73 75 74 74 77 79 83 86 88 90 95 104 108 112 115 118 119 120 123 124 123 122 117 104 105 107 114 118 122 123 122 122 122 120 118 116 113 112
75 75 76 79 81 85 88 93 97 99 100 108 112 115 117 119 123 124 122 122 117 106 106 108 112 117 122 124 124 120 115 110 104 100 98 97 97 97
76 76 79 82 86 89 93 97 101 105 107 111 115 119 123 125 122 121 114 104 105 110 115 118 121 118 115 111 106 102 99 95 91 87 86 86 86 88
77 79 81 84 88 92 97 102 107 110 111 112 119 121 122 123 113 105 106 111 114 118 119 117 113 107 100 97 93 90 86 84 80 78 79 79 78 79
79 81 85 88 93 98 103 106 108 113 119 119 114 118 114 110 106 110 113 119 119 116 111 102 99 96 91 85 83 81 79 77 72 72 71 71 71 72
81 84 89 95 99 102 105 110 116 119 118 118 113 105 106 108 111 115 119 121 116 104 97 94 88 86 80 77 76 75 76 70 66 63 62 63 65 66
86 90 96 99 102 107 112 117 117 119 117 109 105 105 107 113 117 121 117 110 102 91 86 83 78 78 75 72 67 68 69 64 62 59 58 58 57 59
92 96 99 103 107 113 114 115 117 113 107 105 106 109 115 120 120 116 103 97 92 81 74 82 71 69 67 64 60 61 60 58 57 56 55 54 52 54
95 100 103 109 112 111 113 112 110 108 107 108 112 116 118 119 110 101 96 88 82 78 72 78 64 58 56 56 54 56 55 53 52 53 54 51 50 52
101 106 110 109 112 111 108 106 107 110 112 114 117 118 114 102 96 91 85 85 81 72 60 66 60 53 53 45 46 50 53 51 49 51 49 48 49 49
107 109 109 110 109 106 103 104 108 112 116 118 118 111 100 92 84 80 79 75 74 71 58 58 51 49 53 42 41 45 50 47 48 48 46 46 47 44
106 108 108 106 103 103 105 108 110 115 119 119 107 97 88 82 78 73 68 65 63 65 56 57 50 43 53 43 41 43 46 43 47 42 44 45 44 42
106 106 103 101 103 105 109 112 116 118 114 103 94 87 82 77 72 67 60 54 54 55 53 53 52 45 43 56 41 39 42 41 43 39 40 41 42 40
102 98 100 104 107 111 114 117 117 107 100 92 85 81 77 71 66 61 54 50 47 52 55 52 54 49 48 50 47 35 36 40 39 35 34 37 37 39
97 101 105 108 113 115 117 112 103 97 90 84 81 76 70 65 59 57 51 50 49 51 53 52 51 48 47 47 40 37 32 31 33 31 31 32 33 31
101 107 111 114 116 115 105 97 92 86 81 78 74 69 64 59 54 54 55 54 53 49 46 47 46 44 42 39 34 30 31 29 26 26 25 25 26 26
106 111 114 115 110 100 94 88 83 78 75 70 65 61 57 55 54 55 55 53 49 45 37 39 41 37 35 32 29 23 22 24 23 21 21 23 23 22
110 113 111 102 95 91 86 81 76 73 68 63 60 56 55 56 57 53 48 45 44 39 35 36 35 33 29 28 25 21 19 19 19 19 20 22 22 21
110 104 96 92 88 83 78 74 72 67 62 58 57 58 59 55 50 47 43 39 37 32 28 31 29 26 25 22 18 17 15 15 16 17 18 19 17 15
98 93 87 84 80 74 70 68 64 59 56 56 58 59 55 51 48 42 36 32 28 25 26 25 23 22 19 12 11 9 10 11 12 14 14 12 10 8
89 85 82 77 71 66 64 60 56 54 55 57 56 53 50 47 42 36 32 27 25 24 20 18 17 14 7 6 5 6 7 9 10 10 8 7 2 1
82 79 73 66 63 61 57 53 52 53 54 54 49 46 42 38 34 30 28 26 22 17 13 12 9 4 2 3 5 5 7 8 8 5 6 5 7 6
76 69 62 59 58 54 50 49 52 52 51 48 44 39 35 30 28 27 23 19 15 10 9 5 1 4 6 7 5 6 10 9 7 6 7 10 11 8

GFSNE_250_spd_054.txt.gz
Wind_Speed
67 69 71 72 73 75 77 79 79 78 81 88 90 94 98 101 106 110 114 117 120 122 124 125 122 119 107 103 104 105 107 107 108 110 113 114 114 115
68 70 72 74 76 77 79 83 85 86 84 89 93 97 102 107 112 114 117 122 126 126 122 115 104 102 103 106 110 114 115 115 113 112 112 111 109 108
70 72 74 75 78 80 83 86 89 91 91 94 100 105 108 112 116 119 124 124 124 116 103 104 105 108 111 114 116 115 112 108 101 95 93 91 91 93
72 73 74 77 80 82 86 89 93 96 99 100 106 111 115 119 122 121 121 120 108 104 107 110 114 115 115 110 106 100 95 92 89 85 81 80 81 82
70 73 76 79 83 85 89 92 97 101 105 109 112 118 122 123 120 119 108 106 108 109 112 114 115 111 104 97 92 89 85 84 80 76 73 73 74 74
71 75 79 82 85 89 93 98 102 107 111 115 120 121 121 122 111 106 106 111 116 115 113 111 103 97 92 86 83 79 78 76 73 68 66 66 66 67
73 77 82 85 89 94 98 103 108 112 117 120 119 120 115 108 104 108 112 115 120 111 102 102 90 87 79 77 75 73 70 67 66 62 58 58 59 59
76 81 86 90 95 98 103 109 114 119 119 119 115 108 105 105 111 114 116 115 110 101 89 91 82 80 71 69 63 61 64 61 59 57 54 52 53 53
80 86 91 96 100 104 109 115 118 121 121 111 106 105 109 113 114 113 109 102 98 89 78 82 79 72 62 58 51 52 56 58 54 52 50 49 49 50
86 92 95 100 105 110 112 114 118 118 116 113 110 112 114 114 109 102 97 93 90 84 69 69 72 66 59 51 42 42 48 51 51 49 46 45 45 44
92 97 101 105 110 111 113 113 113 114 113 114 115 115 111 105 98 92 86 81 81 79 64 61 61 56 58 47 34 37 43 46 46 48 47 46 41 39
97 102 107 110 111 113 110 110 111 113 115 119 117 109 101 96 89 81 75 73 69 68 58 57 53 44 55 49 34 40 45 43 45 47 47 44 39 37
102 106 108 110 109 109 109 112 114 115 118 114 107 102 96 88 81 77 70 63 59 57 54 54 52 48 49 56 41 36 43 43 46 44 40 39 36 37
103 106 108 107 105 110 113 116 116 116 109 102 97 92 85 79 75 69 62 58 52 50 56 53 52 50 49 47 44 38 36 36 39 35 33 32 34 37
104 104 102 105 110 114 116 116 112 104 99 94 88 81 76 73 66 62 58 55 57 54 54 54 49 45 41 40 32 30 25 26 29 27 27 29 33 33
99 103 109 113 116 117 115 106 99 95 90 84 78 75 71 65 60 56 59 60 58 53 43 47 43 37 33 30 23 20 19 19 22 24 24 26 27 28
102 107 114 117 118 110 100 95 91 86 79 74 71 66 63 60 59 56 54 53 49 48 41 37 39 30 26 21 18 16 18 17 16 17 19 20 22 24
108 112 115 111 103 96 91 87 81 75 72 68 63 59 59 60 58 54 48 45 43 39 35 32 27 23 19 15 15 14 14 15 14 14 15 15 16 17
109 110 103 96 91 86 83 77 72 70 66 62 59 60 59 58 53 49 45 41 36 32 27 25 22 19 14 13 13 12 10 10 10 12 13 14 15 15
103 97 90 86 82 78 72 68 66 63 59 58 59 57 55 52 47 43 38 33 29 25 22 19 16 12 10 9 7 6 6 7 9 10 13 15 14 14
93 86 83 79 75 68 64 62 58 55 57 57 54 51 48 44 40 36 30 25 21 17 14 12 8 7 5 4 2 3 4 6 7 9 11 11 12 11
82 79 76 70 65 62 58 55 53 54 54 52 49 45 41 37 34 30 24 19 16 13 9 6 6 5 5 4 5 5 6 7 8 9 9 10 8 5
76 73 66 60 58 55 51 49 50 50 48 46 42 37 33 29 25 21 18 16 13 9 9 9 8 9 9 9 8 7 8 9 8 9 9 6 4 4

GFSNE_250_spd_057.txt.gz
Wind_Speed
65 69 71 71 71 72 73 73 72 72 74 83 84 88 91 94 96 97 100 103 106 109 109 112 114 116 120 122 122 122 118 108 103 101 101 101 101 101
64 67 71 71 71 72 73 75 76 76 74 81 86 90 94 97 100 103 107 111 114 117 118 120 122 123 122 118 111 106 104 103 102 104 106 108 109 109
65 64 66 68 70 72 74 76 78 79 80 83 88 92 95 99 103 107 111 115 119 121 123 126 122 117 111 108 105 105 107 108 109 110 110 109 108 105
62 60 62 65 68 70 73 76 79 83 85 87 92 97 101 106 108 111 116 120 124 125 123 118 112 110 107 107 109 110 109 108 105 100 94 91 89 88
60 59 60 63 66 68 72 77 82 86 91 93 96 101 106 111 113 117 122 124 125 116 113 111 110 110 111 108 107 103 97 95 93 88 81 77 75 75
58 57 60 62 66 71 76 82 86 91 96 100 104 108 113 117 120 122 123 120 115 111 111 112 110 109 106 98 93 89 86 84 83 81 75 71 68 69
56 58 62 65 69 75 80 85 92 97 101 104 109 113 118 123 122 119 111 111 118 114 111 113 102 99 94 88 80 77 77 77 77 75 70 65 61 61
58 61 64 70 75 80 86 91 98 103 107 109 114 119 121 118 112 111 113 115 116 114 103 99 94 94 85 79 72 68 67 66 69 68 64 57 54 53
61 66 72 76 81 87 92 98 105 111 115 118 119 119 113 112 112 114 112 110 108 101 90 89 91 86 79 77 65 58 55 55 58 60 59 54 49 48
67 72 77 82 88 94 99 104 110 117 120 120 116 111 111 114 114 111 105 101 99 96 82 78 81 80 77 71 54 47 46 48 51 53 53 51 48 43
74 79 83 89 96 101 105 110 113 117 117 115 114 115 115 112 106 100 97 94 88 85 76 71 72 68 68 65 47 42 42 47 50 52 50 49 46 42
82 86 92 97 103 107 109 112 112 110 114 118 119 116 109 103 99 94 87 81 77 74 69 64 64 58 59 60 42 42 48 52 54 51 49 47 45 46
88 94 100 104 107 110 110 107 109 114 117 118 114 107 102 98 93 86 77 71 68 62 56 55 62 59 55 64 46 44 50 52 50 48 46 44 45 47
95 99 101 105 107 103 106 111 115 115 115 108 103 100 96 90 82 77 72 64 58 52 55 56 59 56 52 51 47 36 41 39 41 41 41 41 41 43
96 99 100 99 102 108 112 115 115 111 103 99 97 93 84 78 75 68 63 58 61 55 51 52 53 48 43 43 37 32 31 33 33 34 35 35 35 37
91 94 101 105 109 114 115 112 105 99 95 92 86 79 75 71 66 61 62 59 58 56 41 44 42 37 33 32 26 25 27 30 27 26 28 30 32 33
96 101 106 110 113 112 106 98 94 90 86 77 70 69 65 63 64 60 55 52 46 42 36 30 31 25 22 19 20 22 21 22 25 23 21 24 27 28
102 106 109 108 106 99 93 89 84 80 71 67 63 59 61 62 59 55 47 40 38 33 28 22 22 18 16 17 17 17 18 17 17 18 17 20 23 22
106 108 103 97 90 87 83 79 73 66 63 58 56 59 58 57 52 46 40 34 29 24 21 19 17 15 13 14 15 13 12 12 12 15 17 16 18 21
101 97 91 86 81 77 72 66 61 58 54 53 56 55 53 49 46 41 36 29 24 21 18 15 13 11 11 10 8 8 8 9 10 10 12 13 13 13
91 86 83 77 71 66 60 56 54 50 50 53 51 48 45 41 36 33 28 23 19 16 14 12 10 7 6 5 5 6 6 8 9 9 9 10 11 13
83 78 72 66 60 56 53 49 45 47 49 47 43 39 36 33 32 27 23 20 18 15 12 10 9 8 8 7 7 7 7 8 8 9 11 12 14 13
73 68 61 55 51 49 44 40 43 46 43 40 36 32 30 29 26 23 19 17 15 14 14 14 13 12 11 11 10 9 10 11 11 11 13 12 9 6

GFSNE_250_spd_060.txt.gz
Wind_Speed
65 67 69 68 69 72 72 72 69 66 67 76 77 81 80 82 84 85 86 88 92 95 97 100 100 101 105 107 109 112 114 117 120 122 122 122 120 117
70 71 70 70 71 72 74 73 70 66 64 70 75 77 80 83 85 87 90 93 97 101 103 105 107 109 111 114 116 118 122 122 122 120 117 113 110 108
73 73 74 75 75 74 75 76 71 67 64 67 72 76 79 83 88 91 95 99 103 107 110 112 114 117 119 122 122 120 117 114 113 113 112 110 109 107
76 76 78 77 77 76 78 74 68 68 68 68 73 77 82 87 90 94 99 104 108 111 114 118 120 122 121 117 114 114 112 110 111 112 112 109 107 104
77 78 77 77 77 79 77 69 68 70 73 74 77 81 86 93 94 99 104 110 114 118 119 121 117 114 114 115 114 113 111 108 106 103 98 96 93 91
79 79 77 75 79 78 69 68 71 74 78 80 83 87 93 98 102 105 110 118 121 121 117 115 114 116 117 115 111 105 97 93 93 94 91 86 82 77
78 78 75 78 77 69 69 72 76 80 84 87 91 96 100 105 109 114 116 116 115 114 115 121 116 115 111 105 99 92 87 84 82 83 83 79 73 68
77 74 78 76 69 70 74 77 82 87 92 95 100 103 108 112 115 112 108 109 115 121 117 114 105 104 101 98 92 81 73 70 72 76 77 74 67 61
73 77 72 69 72 75 79 85 91 97 101 104 108 111 112 110 108 109 111 113 115 113 106 99 97 98 94 91 82 70 67 65 66 67 67 67 63 55
73 66 69 73 78 83 87 92 98 104 110 114 113 107 106 110 110 112 113 111 108 103 98 87 88 87 87 88 76 62 58 59 58 58 60 61 57 52
65 69 74 79 85 90 95 100 106 110 110 107 108 110 112 115 114 112 107 99 96 94 92 77 79 78 80 82 68 49 49 56 56 56 54 54 51 47
71 76 80 85 92 97 101 102 101 102 108 112 116 118 118 116 109 100 94 90 86 82 82 74 73 69 69 74 61 43 51 61 60 55 53 51 48 47
78 83 89 93 96 97 97 100 105 108 114 118 119 116 111 104 98 92 86 78 75 73 69 64 69 71 67 63 62 50 52 57 56 51 50 49 48 49
84 87 88 90 94 100 103 106 110 114 117 115 109 104 99 95 90 83 77 72 67 62 65 62 61 64 61 57 52 47 48 48 48 45 44 43 44 46
81 85 90 94 99 103 106 111 113 114 108 101 98 94 90 85 79 75 70 67 68 62 56 54 57 55 50 48 46 42 41 41 39 40 40 39 39 40
85 91 96 101 104 109 112 111 107 100 94 92 89 84 79 75 71 65 66 64 60 56 45 45 48 44 41 42 38 36 35 34 31 33 34 35 34 34
92 98 103 108 110 109 104 97 93 89 85 80 73 70 68 64 63 61 58 54 48 46 40 38 37 35 35 33 30 27 26 26 25 26 27 27 28 29
97 103 108 107 103 97 92 86 82 77 71 66 63 60 58 59 58 55 52 48 43 39 34 31 30 28 27 25 23 21 20 21 21 19 22 24 24 23
104 104 101 94 89 84 80 76 69 62 58 57 54 54 54 52 51 49 43 38 35 32 29 26 23 21 18 17 16 17 18 16 16 16 15 16 16 17
98 93 86 82 78 73 68 61 56 54 50 48 50 49 48 48 46 39 37 34 29 25 22 19 17 16 15 14 12 10 10 10 12 12 14 15 17 19
86 81 77 72 68 61 54 51 50 45 44 45 46 45 42 40 34 33 31 28 26 23 20 17 15 13 12 11 10 11 11 11 12 13 14 14 14 14
78 72 67 62 56 51 48 45 40 38 40 41 40 37 36 30 27 26 24 22 21 20 18 17 16 14 12 11 11 11 11 10 10 10 10 12 12 11
68 63 57 51 48 44 40 37 35 36 38 37 35 32 27 24 22 21 21 20 20 19 18 17 17 17 17 16 14 13 15 15 13 13 13 13 11 9

GFSNE_250_spd_063.txt.gz
Wind_Speed
83 80 79 78 78 78 77 77 79 78 78 85 84 83 83 83 81 78 76 76 77 80 82 83 85 86 88 91 94 97 99 101 102 103 105 106 107 109
80 78 76 78 79 79 79 80 84 82 81 83 84 84 87 86 83 79 79 79 81 84 86 88 91 92 94 97 101 103 105 107 110 111 113 115 118 119
76 76 76 79 80 81 83 84 87 87 85 86 83 86 87 83 81 80 81 83 86 90 92 95 97 99 102 106 108 111 113 115 117 118 120 121 120 118
76 77 81 83 84 85 86 87 90 89 87 85 84 88 82 80 80 81 85 89 93 97 100 102 104 106 110 113 115 117 118 117 116 115 116 117 117 115
80 86 83 85 86 88 88 89 89 89 89 84 85 81 79 82 82 86 89 95 100 105 108 108 111 114 116 115 113 114 114 114 115 115 113 111 108 106
79 78 82 84 86 86 87 88 88 88 88 88 81 80 83 87 91 94 97 103 108 113 114 110 110 111 114 113 114 115 115 111 108 104 101 99 98 95
79 79 79 81 81 83 84 85 87 88 87 83 85 89 93 96 100 104 107 107 108 109 110 113 112 115 117 115 113 107 102 96 93 92 91 91 90 86
72 71 73 75 76 77 81 84 84 85 85 89 94 97 101 105 107 106 103 106 108 115 117 117 114 113 108 105 102 97 91 85 82 80 80 83 83 78
64 68 71 72 76 79 81 82 84 90 93 97 101 105 104 102 103 107 109 110 114 115 109 108 101 100 98 97 95 89 81 73 70 71 75 77 74 71
65 67 71 75 77 79 79 85 91 96 101 104 105 103 105 108 108 111 112 111 109 106 99 93 93 90 90 89 87 81 71 61 55 63 70 68 61 60
63 68 71 74 75 82 85 90 95 98 100 103 105 108 110 113 113 111 108 102 97 98 94 80 82 78 78 82 81 75 62 54 56 65 65 57 54 52
63 65 70 76 80 85 88 89 92 98 103 108 112 115 117 116 109 102 97 93 88 83 83 74 76 72 68 78 75 72 64 55 57 63 58 54 54 52
66 71 75 79 82 85 88 93 98 103 108 113 117 116 111 104 99 97 90 82 76 73 70 64 71 71 69 67 68 63 57 55 53 51 51 50 49 48
71 73 76 80 85 91 96 100 105 110 113 112 108 104 100 96 91 86 79 75 69 65 69 64 61 58 57 55 52 49 49 47 44 42 42 42 43 42
71 74 79 86 91 96 101 106 109 108 106 102 99 95 90 85 79 76 73 70 69 64 59 53 50 48 45 42 38 39 36 39 35 35 34 33 33 32
74 79 84 89 94 100 106 106 104 100 96 93 88 84 78 72 69 65 66 65 61 57 53 48 43 38 35 33 31 32 31 30 28 26 24 22 23 23
78 83 90 96 102 104 102 99 93 90 84 79 75 70 66 64 59 60 57 54 50 49 45 39 36 33 31 29 27 26 26 25 23 21 20 20 19 19
83 89 96 101 103 100 94 89 84 77 72 68 63 61 57 55 57 52 48 46 44 40 36 34 31 28 26 24 23 21 20 19 19 20 20 19 18 18
89 95 97 95 91 87 82 77 71 65 60 58 55 51 50 52 48 45 41 38 35 33 31 30 28 27 24 22 21 20 18 16 15 14 15 17 17 18
92 92 88 84 80 74 70 63 58 54 52 48 45 46 47 43 41 37 36 33 31 29 28 28 27 26 25 25 23 21 20 19 18 16 16 15 15 15
88 83 79 74 70 63 55 52 50 47 43 41 42 43 40 37 32 30 29 28 28 27 27 26 25 24 23 21 20 18 17 17 16 15 15 15 15 16
78 74 69 65 57 50 48 45 42 39 38 39 40 37 34 31 27 26 27 27 27 26 26 27 26 25 22 19 17 16 14 15 17 16 14 14 14 12
69 65 59 51 46 44 42 39 36 35 36 36 34 31 29 24 23 24 24 24 24 25 26 25 23 23 22 22 21 20 19 17 16 14 14 13 12 12

GFSNE_250_spd_066.txt.gz
Wind_Speed
84 87 88 88 87 88 87 87 85 81 78 82 84 86 89 89 89 90 89 87 86 85 85 85 80 77 76 77 78 81 83 85 87 88 90 93 94 95
88 86 86 86 88 88 88 86 83 79 78 81 87 90 92 94 95 94 92 90 89 89 89 83 81 80 82 84 86 87 89 91 93 96 98 99 101 101
87 88 86 86 86 86 85 83 82 82 82 86 90 93 95 95 95 94 92 89 91 91 85 84 84 85 89 92 94 96 98 101 103 106 108 109 111 112
81 78 77 78 79 79 80 83 85 85 85 86 88 93 93 95 93 91 92 93 89 88 90 91 93 96 98 100 103 105 107 109 111 112 114 115 116 116
75 74 72 73 77 77 81 83 84 86 84 86 88 91 91 91 89 91 91 91 93 98 101 101 104 106 107 107 105 106 108 111 111 111 114 114 114 113
77 76 75 68 78 78 80 82 83 87 89 89 88 85 84 86 87 87 91 97 101 107 112 111 110 109 110 111 112 112 112 112 111 111 110 110 110 109
67 69 71 73 78 80 80 82 86 86 88 83 82 83 83 87 91 96 100 104 110 111 111 113 113 116 116 115 113 110 107 104 101 99 97 97 96 96
56 53 61 66 67 69 72 77 81 78 79 81 85 88 91 97 102 105 107 105 107 113 114 119 118 117 113 108 103 98 94 91 88 86 85 87 86 85
43 50 55 59 64 68 70 72 77 79 81 85 89 95 99 104 103 103 106 108 113 115 111 114 107 104 101 97 92 88 82 77 73 70 70 73 74 76
43 48 52 56 59 64 69 74 79 84 89 94 98 101 101 102 104 105 110 114 114 110 102 101 98 93 89 87 84 79 72 65 59 57 61 66 70 70
47 49 55 62 67 69 72 78 85 91 94 97 99 100 102 105 108 111 113 110 104 103 94 89 85 79 79 76 74 72 66 61 59 59 63 64 62 58
50 56 61 66 71 76 80 83 86 90 94 98 101 104 107 112 113 111 104 99 92 89 83 76 76 72 74 71 68 65 62 56 51 48 50 49 47 47
55 60 65 71 74 77 80 83 87 91 96 101 106 111 115 113 107 101 94 86 80 74 71 66 69 69 64 61 57 57 54 49 45 41 40 39 39 40
62 64 67 71 75 78 81 85 91 97 102 107 112 112 107 101 95 88 81 74 67 62 67 65 61 58 56 53 49 45 45 41 37 35 31 30 30 32
63 67 70 73 77 82 87 92 99 104 108 111 106 100 94 88 81 76 68 64 61 58 57 55 51 50 48 45 43 38 34 33 29 26 24 24 24 24
65 68 72 77 82 88 94 99 105 108 104 97 92 87 81 73 66 62 59 57 59 55 44 46 46 42 40 38 36 35 33 31 28 24 21 19 18 18
68 73 79 83 89 94 99 103 101 93 88 84 79 73 65 61 55 52 52 52 47 46 44 40 40 39 35 33 31 30 27 25 23 22 21 18 16 15
73 78 83 89 94 99 98 90 86 81 77 70 63 59 54 50 48 48 47 42 40 39 39 39 38 35 34 33 30 28 26 24 23 22 19 17 13 12
78 83 89 93 94 87 83 78 75 69 60 56 52 48 45 44 46 44 38 35 35 34 35 35 33 33 32 31 32 30 27 24 22 20 18 18 17 15
82 88 91 87 82 76 71 67 60 54 51 47 43 43 43 43 39 33 32 32 31 31 32 32 32 31 31 29 27 26 26 23 21 21 19 16 14 15
87 85 79 73 68 65 59 54 50 47 43 40 40 41 40 36 30 28 29 29 30 30 30 29 29 28 26 26 26 24 26 27 25 22 17 16 14 14
81 74 69 63 60 54 50 47 44 40 39 40 40 38 34 29 25 26 26 26 27 27 27 28 29 29 27 27 26 24 21 21 21 20 19 17 15 11
73 67 62 57 52 48 46 43 38 36 37 38 37 33 28 23 24 23 23 25 25 26 27 24 23 24 26 26 25 23 22 23 24 23 20 16 13 11

GFSNE_250_spd_069.txt.gz
Wind_Speed
83 82 83 84 84 84 87 81 89 92 90 91 91 91 90 89 87 84 84 85 85 88 90 89 89 87 86 85 84 83 83 79 76 76 77 79 79 80
82 84 86 88 88 90 89 89 92 91 88 89 89 87 86 84 85 84 85 86 87 89 91 91 89 86 86 86 87 85 82 80 81 82 85 86 87 88
87 88 90 91 86 83 77 78 73 73 78 79 79 82 84 85 86 86 85 86 89 91 93 91 87 88 88 86 85 87 88 90 92 94 96 97 98 100
90 92 89 83 73 62 73 72 83 87 81 83 83 84 85 86 87 89 90 93 93 94 91 90 89 89 90 92 93 96 98 99 99 100 101 102 104 105
84 80 77 76 71 73 81 86 92 96 90 87 89 86 85 88 89 91 91 92 90 92 92 91 96 96 99 99 101 102 101 101 104 105 106 108 108 109
75 74 72 73 73 71 74 82 82 83 82 84 78 77 83 86 86 86 85 89 91 96 99 101 104 106 108 107 104 105 108 108 107 106 105 104 103 104
61 61 61 57 59 67 68 72 74 75 72 70 75 78 82 80 81 84 87 90 98 103 105 109 109 111 114 113 112 109 102 97 94 94 93 93 93 94
54 55 55 58 67 72 73 69 60 61 65 69 74 74 76 80 85 90 95 98 103 108 107 110 114 118 117 111 104 98 93 88 83 80 80 83 85 85
51 54 55 56 59 57 55 59 64 65 66 69 73 79 84 89 93 98 101 103 105 108 107 112 115 114 105 99 92 87 84 77 74 72 70 72 74 76
47 49 47 46 50 51 55 60 65 69 73 78 82 87 91 95 97 99 100 103 108 114 109 111 111 102 95 83 79 77 74 70 68 66 64 64 66 67
36 37 42 48 52 56 61 67 73 79 83 87 90 92 95 96 98 101 104 108 111 112 101 98 96 87 82 71 68 71 69 64 60 61 57 54 56 56
39 44 50 54 59 65 70 76 81 84 87 91 92 92 95 98 101 105 108 110 104 99 90 85 82 72 70 69 63 64 62 55 54 52 50 47 44 45
45 51 58 64 69 72 75 78 82 85 87 90 93 96 99 102 106 108 102 95 89 83 75 69 69 64 61 60 57 54 54 47 44 42 42 41 41 40
52 57 61 65 70 74 77 80 82 85 88 93 97 100 104 105 102 93 87 80 71 64 63 59 59 56 54 51 48 48 43 46 39 36 33 33 34 34
57 61 65 67 71 74 77 81 86 90 94 97 101 103 99 91 85 79 68 63 59 51 51 53 51 48 45 43 42 42 40 37 37 33 31 28 27 28
57 60 64 68 73 78 84 88 92 96 99 100 95 87 81 75 66 61 58 52 49 47 45 42 41 41 41 36 38 35 35 34 31 30 27 25 25 25
60 65 70 75 79 84 89 93 97 96 89 84 78 73 66 59 53 50 48 48 47 46 42 34 32 35 38 41 34 35 33 31 31 27 25 23 20 20
66 71 76 81 87 91 94 92 85 80 74 69 65 58 53 48 44 44 45 44 39 35 35 34 35 30 26 29 36 29 25 26 29 27 25 23 23 18
72 78 84 89 91 86 81 77 72 66 62 57 51 47 43 42 43 42 41 35 30 30 31 33 32 34 32 26 26 29 26 21 17 20 23 20 18 20
80 86 86 82 78 75 70 64 60 56 51 47 42 39 40 41 39 36 32 27 26 26 27 27 29 29 29 28 28 27 27 26 24 21 18 20 21 17
84 80 76 75 71 66 60 56 52 46 43 38 35 37 38 37 33 29 25 25 25 26 26 26 26 25 23 24 26 26 25 24 22 21 18 15 16 21
76 73 73 69 65 58 55 49 44 40 36 33 35 36 35 31 27 23 22 22 22 23 23 22 21 21 22 23 23 21 20 22 24 25 26 23 19 14
72 70 70 66 58 53 50 43 39 36 32 32 34 34 30 26 22 20 20 20 20 19 19 18 17 18 21 19 20 23 26 29 30 28 23 25 24 18

GFSNE_250_spd_072.txt.gz
Wind_Speed
96 99 93 91 90 88 93 90 91 84 86 87 89 91 89 90 91 87 77 76 77 80 79 78 78 79 79 80 82 82 82 82 83 82 81 80 81 81
100 101 95 95 93 91 88 92 91 89 86 87 83 79 82 84 90 80 85 86 88 87 87 85 84 84 85 84 84 85 84 82 81 82 82 82 82 82
100 96 81 94 98 92 93 94 93 91 88 78 77 80 82 90 91 92 98 100 97 95 90 87 85 83 83 85 85 84 84 83 84 85 88 91 94 95
98 94 91 92 98 100 96 92 92 84 79 76 78 87 93 96 97 99 100 98 87 83 81 81 83 86 86 85 85 86 88 89 91 93 95 96 95 95
98 96 97 94 94 94 91 86 84 84 80 78 81 86 90 93 88 88 88 82 82 82 82 84 87 86 87 89 92 93 91 91 93 98 102 104 104 104
93 91 90 90 89 85 83 79 74 72 80 78 78 84 81 81 82 81 78 79 82 85 85 87 90 92 95 96 96 93 96 100 104 107 108 104 101 99
83 81 81 78 75 69 68 68 70 72 76 74 78 79 84 79 72 74 76 80 85 88 88 95 96 100 102 100 101 102 104 105 102 101 98 93 88 90
71 71 71 68 63 62 65 68 70 70 67 74 78 78 75 74 76 79 81 85 89 95 95 100 101 106 107 109 109 104 98 92 91 91 85 79 75 74
51 55 56 54 58 63 63 63 58 59 61 62 66 72 75 79 81 85 90 92 96 100 98 100 106 110 111 110 100 91 87 85 83 80 74 72 69 70
35 38 45 49 51 48 48 51 56 61 64 67 73 76 80 84 87 90 94 97 99 101 99 101 110 110 107 97 90 82 76 74 72 71 70 70 66 64
26 29 33 35 40 46 52 59 65 68 73 76 79 83 88 91 93 94 96 97 100 105 103 106 106 98 93 87 76 68 66 65 65 63 62 61 61 59
27 33 37 42 48 53 58 64 69 74 79 83 86 89 91 93 94 96 98 100 101 102 96 92 89 78 75 74 62 59 60 59 56 55 54 53 52 53
35 39 44 49 54 60 65 70 74 79 83 86 88 91 93 95 97 99 99 96 89 84 78 75 71 67 63 62 62 58 54 53 52 49 49 48 47 45
41 46 51 55 59 64 68 72 76 81 85 89 91 94 97 98 97 90 83 78 73 69 66 63 60 56 57 59 55 51 47 45 48 46 42 43 42 41
47 51 55 60 65 70 73 78 81 85 89 93 96 94 90 84 80 75 70 66 60 57 55 54 53 52 49 47 50 44 43 39 41 42 39 39 37 36
52 56 60 65 69 73 77 82 87 91 91 87 82 79 76 69 67 65 59 56 51 47 48 48 45 41 41 42 44 44 36 39 37 37 32 34 35 29
55 61 65 70 74 79 84 86 84 80 79 77 73 65 62 59 55 53 50 47 46 45 41 36 34 32 29 36 41 39 39 37 37 37 34 32 32 31
63 68 72 75 80 83 81 77 77 75 72 66 61 58 53 49 46 43 43 42 40 37 36 34 31 27 26 30 31 31 32 31 31 31 31 30 29 30
70 74 77 82 78 74 75 73 72 68 60 57 54 49 45 42 40 40 40 36 32 30 31 31 29 31 28 27 27 27 29 29 28 29 31 32 32 29
75 78 82 77 72 73 73 70 65 57 53 50 45 43 40 38 38 38 35 31 27 25 25 26 27 26 26 26 26 26 27 28 28 26 22 18 19 29
78 80 81 72 71 71 70 66 57 52 48 42 39 37 36 35 35 34 30 26 24 23 23 24 23 23 23 23 25 25 21 24 26 29 30 28 18 16
81 84 73 69 71 68 66 59 51 49 43 38 36 35 34 35 33 29 25 23 21 21 22 21 20 18 18 22 19 22 24 23 25 29 32 32 33 30
84 74 67 68 68 66 62 55 50 45 40 34 32 32 33 33 29 25 21 21 19 18 20 19 16 17 18 14 19 23 27 30 29 26 27 29 30 31

GFSNE_250_spd_075.txt.gz
Wind_Speed
101 102 102 102 104 102 95 85 93 94 92 92 92 86 88 95 96 97 96 94 94 91 89 88 86 84 86 88 86 84 77 76 77 77 79 78 78 78
110 110 110 109 108 103 95 94 99 92 89 85 93 93 99 99 99 97 97 91 90 88 89 88 88 90 91 91 87 83 78 76 75 77 78 78 79 79
120 121 120 115 110 104 93 95 89 96 92 101 101 103 102 103 99 97 90 88 85 91 90 91 91 91 88 86 85 77 74 76 76 77 80 82 84 85
127 122 116 112 110 106 103 101 102 99 97 99 102 102 102 100 97 93 86 81 82 86 87 87 86 86 81 75 75 76 77 77 81 84 86 89 92 94
113 112 112 109 105 105 102 99 98 94 93 92 95 96 97 93 84 82 83 84 85 78 78 80 82 79 78 80 81 82 83 85 87 89 92 92 92 94
100 100 100 99 98 97 93 92 89 88 86 85 83 86 84 81 77 76 77 77 81 81 78 77 79 80 84 86 87 87 86 86 86 87 91 96 100 100
79 82 87 88 87 87 82 79 81 82 81 78 78 77 76 75 74 73 72 71 75 77 79 83 85 88 93 93 91 88 87 89 92 97 103 105 101 95
63 68 71 67 63 62 62 64 66 67 68 70 68 65 63 65 67 70 74 77 81 86 84 89 89 92 92 91 91 93 95 97 100 104 99 92 87 83
27 30 33 34 36 42 46 47 48 50 53 55 58 62 66 70 73 78 81 83 86 88 86 90 92 94 97 98 100 101 98 95 91 87 83 79 73 70
15 17 19 22 24 28 32 37 42 47 53 58 63 68 73 77 80 84 86 89 91 92 89 93 99 100 104 101 96 89 82 79 77 73 69 66 62 63
20 20 22 26 31 35 41 46 50 55 60 65 69 73 78 81 85 88 90 93 96 99 97 100 100 96 93 84 80 74 70 65 62 61 60 59 58 60
27 30 32 35 39 44 49 54 59 63 67 72 77 82 86 89 91 94 96 99 99 99 92 90 86 79 78 73 66 58 56 52 54 54 54 54 54 57
37 39 42 45 48 52 56 61 66 70 75 80 83 87 90 93 95 95 93 89 85 83 80 77 73 68 62 60 58 49 50 47 46 47 51 52 49 49
43 44 47 50 54 58 62 67 72 76 80 84 88 91 92 88 83 81 79 77 74 70 66 62 59 54 52 53 55 52 48 40 41 41 44 47 46 47
45 47 51 55 60 64 68 72 75 78 84 84 81 81 79 76 74 73 68 65 62 58 54 54 49 47 48 48 50 46 43 36 37 38 39 42 43 43
51 54 59 64 68 71 73 74 78 83 79 78 78 76 72 69 64 61 59 55 51 47 43 46 45 44 41 38 40 42 40 41 37 38 37 38 39 40
57 63 68 72 73 74 75 78 81 73 75 78 76 71 64 59 56 54 50 46 42 41 40 40 39 35 33 34 35 36 36 36 36 36 36 35 35 40
64 69 72 76 75 76 79 80 69 69 75 75 71 65 57 54 51 46 43 39 40 39 38 35 30 27 28 29 29 30 29 31 30 32 33 36 35 35
69 72 74 74 78 80 78 68 67 72 74 73 66 60 56 49 45 41 36 36 36 36 32 30 27 27 26 26 25 25 27 28 29 24 27 30 33 28
70 71 74 78 80 76 67 66 70 72 71 67 61 57 51 44 40 36 33 36 32 29 26 26 25 23 24 23 22 22 24 27 30 30 28 27 29 29
70 74 77 79 78 69 68 68 71 70 69 61 56 52 45 40 35 32 33 32 28 24 22 23 21 21 20 20 22 21 22 22 24 29 30 31 31 29
73 77 79 81 72 70 71 69 67 68 65 58 53 46 40 35 32 31 30 27 22 22 21 21 20 18 16 18 21 22 20 22 24 26 31 33 34 37
76 80 82 78 68 70 70 67 66 65 61 55 49 42 38 32 31 31 28 22 19 21 21 20 18 16 16 15 16 22 21 22 25 24 22 26 29 29

GFSNE_250_spd_078.txt.gz
Wind_Speed
104 107 109 108 108 108 109 107 108 107 104 97 82 69 82 89 91 96 103 109 99 102 102 103 101 99 97 95 89 80 75 76 76 77 73 75 76 75
113 115 118 119 119 118 118 118 117 113 107 85 85 81 89 92 95 102 105 107 103 109 104 103 102 102 95 80 75 75 76 79 79 80 78 79 76 71
122 124 126 126 125 120 114 110 104 101 97 98 92 93 97 97 104 104 105 105 110 106 106 106 104 95 82 75 74 77 79 74 75 76 75 75 73 73
120 108 104 101 100 100 97 94 94 94 95 96 92 93 94 93 99 103 100 100 105 104 102 100 93 81 79 76 79 78 74 73 72 74 75 76 78 80
103 97 86 82 83 85 89 91 91 90 90 92 93 93 93 93 94 96 98 99 98 96 94 84 80 79 75 74 74 73 73 74 75 77 80 83 85 88
75 69 67 63 64 62 67 78 86 87 86 79 81 85 87 87 86 87 88 87 86 80 77 75 75 74 75 76 78 78 80 81 83 85 86 88 88 89
59 52 46 41 38 38 43 48 53 60 63 66 67 67 67 70 72 72 71 71 73 72 72 76 76 79 83 82 82 82 82 81 81 82 85 88 92 94
43 32 28 25 22 21 24 29 31 32 35 39 43 46 50 53 56 59 63 68 73 75 76 83 79 85 84 84 84 83 84 84 85 88 92 94 93 90
36 32 31 28 26 25 24 26 29 32 35 39 44 48 54 58 62 66 69 73 76 78 80 88 84 88 88 89 88 88 87 87 86 89 85 82 80 79
38 36 34 33 32 32 34 36 38 41 44 49 53 57 61 66 70 74 77 81 84 85 85 93 90 94 94 89 86 84 81 80 80 76 73 72 69 66
41 40 40 39 39 40 42 44 47 50 54 59 64 68 72 75 79 81 84 88 94 91 90 91 86 88 87 80 78 76 73 69 66 63 61 60 58 59
44 44 45 45 46 47 49 52 55 59 64 69 73 75 77 79 83 87 90 90 84 80 78 82 76 73 79 69 63 61 60 56 53 53 51 53 54 54
46 47 47 48 51 53 56 59 64 68 72 75 76 77 80 85 88 87 80 76 76 75 72 71 69 62 59 62 53 48 48 43 43 45 45 46 45 46
48 50 52 55 57 60 63 66 70 73 73 73 77 81 82 80 75 74 75 73 69 66 59 57 59 55 49 46 46 42 41 36 40 37 36 36 37 39
51 53 55 58 61 66 69 72 74 72 74 79 79 73 71 72 73 73 70 65 59 54 53 51 50 46 41 43 44 41 38 29 32 32 32 32 33 36
53 55 59 62 67 71 73 71 71 75 78 77 69 71 73 73 71 69 62 56 53 47 42 43 44 40 39 38 38 35 31 30 28 29 29 28 31 34
56 60 64 68 70 71 71 72 75 77 78 68 70 72 74 70 66 59 55 52 46 40 36 36 38 37 33 32 28 29 27 27 26 26 30 28 24 30
59 62 66 68 70 72 72 75 78 79 70 66 71 72 72 68 61 53 50 45 41 36 35 35 34 31 27 25 25 24 25 23 21 23 25 30 30 30
62 63 66 69 72 74 75 78 78 71 64 68 71 71 72 65 57 51 44 39 36 34 34 34 30 26 23 22 22 20 20 21 21 21 22 24 26 26
62 66 69 72 75 76 77 78 72 68 68 69 68 69 68 61 54 47 39 35 34 33 32 31 25 23 23 20 19 17 15 19 21 22 23 23 26 28
66 68 71 75 75 78 79 75 70 71 70 67 67 67 61 56 50 42 36 31 32 33 29 26 22 22 20 18 17 14 14 16 19 22 26 27 27 26
68 70 73 76 78 75 73 69 72 70 67 65 66 63 58 51 44 38 32 30 31 31 27 22 20 20 19 16 15 14 16 17 18 20 24 29 33 35
69 73 76 76 72 67 66 70 70 65 63 64 64 60 53 47 40 35 30 29 32 27 24 20 19 19 16 13 12 12 18 20 22 22 17 21 25 29

GFSNE_250_spd_081.txt.gz
Wind_Speed
95 93 95 98 100 105 113 115 117 111 106 105 104 100 100 96 90 88 87 81 83 86 87 89 92 96 100 100 99 103 104 102 101 98 85 73 64 61
93 98 102 103 107 110 112 103 102 106 107 104 101 94 95 92 89 87 90 87 81 86 92 100 102 103 105 104 105 107 104 105 101 92 80 70 67 65
96 103 109 110 108 98 92 102 104 103 95 92 91 91 91 89 90 87 90 87 85 89 94 97 101 109 107 103 108 113 110 101 99 84 76 73 71 70
100 105 111 106 89 86 89 78 73 72 71 71 69 79 78 83 81 85 84 86 87 86 95 95 101 104 104 105 104 105 106 94 84 78 73 72 70 68
101 110 90 85 86 86 79 62 54 52 51 53 54 56 61 65 72 79 81 84 89 88 93 92 97 96 96 94 89 87 82 78 74 72 70 71 73 74
107 84 74 76 75 71 58 47 37 33 29 27 29 33 37 43 50 56 62 67 68 68 69 70 70 72 72 71 71 72 72 73 75 76 78 80 81 81
77 67 67 70 65 61 52 45 40 37 35 33 33 33 34 36 39 42 47 51 54 57 62 63 66 70 70 72 74 75 76 77 79 81 82 83 85 86
61 60 65 64 61 56 49 44 42 39 38 37 38 39 41 44 47 50 55 59 62 63 69 68 74 75 76 77 78 78 80 81 83 85 87 88 89 90
56 60 61 59 56 53 50 47 45 45 46 46 46 48 51 55 59 63 65 66 68 69 76 75 79 81 82 81 81 79 78 79 79 79 80 82 81 79
54 57 57 57 55 54 52 50 50 51 54 56 58 60 63 65 67 69 71 73 75 77 82 87 84 86 83 77 76 75 77 78 78 77 74 73 72 71
53 56 56 57 56 55 54 54 55 56 58 60 63 65 67 69 70 72 77 81 81 79 76 75 73 78 80 75 72 71 71 69 69 66 64 62 61 61
52 56 57 57 56 56 56 57 58 60 63 65 66 67 68 70 74 77 81 77 73 72 71 75 73 73 77 67 61 58 58 58 57 55 54 51 51 52
54 57 58 58 58 57 58 60 62 64 66 67 68 69 72 76 78 79 76 72 72 70 70 73 71 65 61 62 51 48 49 45 44 44 44 44 44 44
55 58 58 58 58 58 61 63 65 67 68 69 69 71 76 78 76 70 69 72 71 70 69 65 63 58 54 50 44 37 37 35 37 38 37 37 37 38
57 58 58 58 58 61 63 66 67 69 70 72 72 74 74 70 67 69 71 71 68 66 62 59 57 53 44 40 38 34 33 28 34 31 31 32 32 35
57 57 57 57 60 63 65 67 70 72 73 74 75 73 67 67 68 71 71 70 68 61 54 52 49 45 40 35 37 34 30 28 26 29 28 27 25 28
57 56 57 60 62 64 67 70 72 74 77 78 75 69 64 67 68 69 70 70 64 58 49 42 41 39 34 36 35 33 25 26 26 25 25 21 21 25
55 56 59 62 64 67 68 69 73 76 73 70 65 64 67 66 67 67 69 65 59 52 43 38 37 33 32 32 32 26 26 24 22 21 19 20 18 23
54 57 60 63 65 66 68 71 74 72 70 70 66 65 66 66 66 68 66 61 53 46 37 35 34 33 31 27 28 25 24 23 19 15 16 17 16 19
55 58 63 68 69 68 71 73 74 70 70 69 66 65 65 66 67 67 62 55 48 42 35 30 33 33 29 25 24 24 22 22 18 13 15 17 19 20
60 64 67 70 70 70 73 75 73 69 71 69 67 66 65 66 68 65 58 49 43 39 35 28 32 32 26 25 23 23 22 18 13 15 17 20 20 20
65 67 69 69 71 73 75 73 69 69 70 69 68 66 66 67 67 63 54 47 40 36 34 31 30 29 23 23 22 21 18 17 14 13 15 23 25 23
67 67 67 69 72 74 73 69 70 70 69 68 68 66 67 67 63 56 50 44 39 34 31 31 28 25 23 23 21 21 18 17 15 11 11 18 23 25

GFSNE_250_spd_084.txt.gz
Wind_Speed
109 108 107 99 90 88 91 93 99 101 93 83 82 86 91 99 97 96 99 99 96 88 89 83 88 93 85 85 86 93 91 94 94 92 93 97 95 97
107 109 100 88 88 92 94 100 102 99 83 81 83 85 82 75 71 73 79 88 88 89 91 88 87 83 84 87 91 88 97 100 100 98 99 97 98 100
107 96 89 87 90 94 99 104 105 84 78 79 78 75 64 57 55 57 64 72 75 76 82 82 82 83 85 85 90 89 86 98 104 102 104 104 109 107
93 88 87 90 93 98 104 100 81 76 77 73 70 63 54 45 41 39 42 47 54 62 67 74 81 81 83 88 88 87 88 92 99 107 108 105 103 104
86 88 88 93 97 104 88 76 71 74 72 68 62 58 51 44 39 35 33 31 34 36 40 51 57 67 71 73 76 79 85 85 86 84 86 79 72 70
88 89 92 96 101 85 75 67 69 70 67 64 60 55 51 47 45 44 42 41 42 44 46 48 53 55 58 61 63 65 67 68 69 71 73 73 74 74
88 92 97 101 85 74 65 65 67 67 64 62 59 56 54 52 50 50 51 50 51 53 54 56 60 61 64 67 69 72 73 75 77 79 79 80 80 80
93 97 103 83 74 62 58 64 66 66 64 62 60 58 58 57 57 57 58 59 59 60 61 63 67 68 70 70 71 73 75 77 79 81 83 84 85 87
99 98 81 73 62 55 58 63 64 65 65 63 62 62 63 62 61 61 62 64 66 69 73 74 76 77 76 74 72 70 73 75 76 76 76 78 79 80
84 77 72 65 56 56 60 63 65 65 66 65 65 65 65 64 64 66 68 70 71 74 80 82 78 77 70 66 67 70 73 74 74 74 74 74 73 73
72 66 61 55 54 56 60 64 65 65 66 67 67 67 67 67 69 71 75 76 76 77 76 75 72 74 71 67 66 67 68 67 66 65 64 61 60 59
64 60 56 52 53 57 61 64 65 66 67 68 68 68 68 70 73 76 79 80 79 75 73 75 73 72 73 66 60 57 57 56 56 54 53 52 51 51
58 55 52 52 56 60 63 64 65 67 67 68 69 69 70 72 76 77 77 73 70 70 72 73 71 69 69 64 52 47 49 49 50 48 46 44 42 41
53 51 52 55 59 61 63 64 65 66 69 69 70 70 73 76 76 74 73 70 70 71 70 68 69 69 65 59 54 43 39 39 40 39 39 37 37 36
50 51 54 57 60 62 63 63 65 66 68 70 71 72 75 77 74 72 70 70 69 68 66 66 68 68 62 55 50 37 34 29 34 34 34 32 32 31
51 53 55 58 60 61 61 63 64 69 71 72 71 75 77 76 69 69 68 69 69 66 65 64 64 64 59 48 42 37 30 30 28 32 29 28 27 29
53 53 55 58 59 58 61 64 68 71 71 71 73 76 75 69 67 67 68 69 69 69 66 61 58 57 52 42 36 35 31 31 27 28 25 25 26 29
51 54 56 55 56 60 64 67 70 71 70 72 75 75 69 68 67 66 68 68 69 69 66 60 53 52 45 35 34 35 31 28 26 25 25 23 25 25
52 52 52 55 59 64 68 71 72 70 72 74 76 71 68 67 66 67 67 68 69 68 62 52 48 47 45 32 24 38 27 27 24 25 25 24 21 21
48 49 53 58 63 68 70 71 70 71 74 75 73 69 68 68 67 67 67 68 67 63 56 47 44 43 40 34 26 33 27 25 24 24 24 23 22 19
48 53 57 61 64 67 71 70 70 73 75 75 70 68 68 67 67 67 67 67 63 57 54 47 40 39 35 32 30 28 26 24 23 23 25 25 22 18
51 54 58 61 64 67 70 70 72 74 76 73 70 69 68 66 65 66 67 65 58 53 50 46 38 35 31 33 28 26 25 25 24 24 28 25 20 15
54 57 60 64 67 70 70 72 74 76 73 71 69 69 67 65 63 64 65 58 54 50 46 42 34 30 29 32 28 23 25 25 25 26 23 20 19 19

GFSNE_250_spd_087.txt.gz
Wind_Speed
103 105 104 108 109 108 108 104 100 89 86 90 97 100 83 73 71 73 74 77 74 69 61 61 64 70 72 74 77 87 89 79 80 85 84 87 90 91
106 106 110 109 110 108 101 99 91 88 87 92 99 87 75 69 70 70 71 71 67 60 55 49 47 50 59 74 83 86 83 83 84 91 92 92 96 88
107 110 112 112 107 96 96 88 87 89 94 97 87 75 69 69 69 69 68 68 65 60 54 46 40 38 39 47 61 72 75 80 89 88 93 90 92 93
110 114 114 103 96 95 87 87 89 95 100 84 77 69 65 68 67 66 66 65 63 60 56 51 49 47 43 42 45 46 52 61 68 76 82 84 87 92
114 108 100 95 91 85 86 90 94 100 85 76 69 62 65 68 66 66 65 64 63 60 58 54 54 52 52 53 55 56 57 59 59 62 69 74 75 77
98 95 90 88 84 85 89 94 100 85 77 71 61 62 67 68 67 67 66 64 64 64 61 60 60 59 58 59 61 62 64 67 70 72 74 75 77 78
89 86 83 84 86 89 92 99 85 77 72 64 61 65 68 68 69 69 67 67 67 68 67 68 67 66 66 66 67 68 70 74 76 78 79 80 81 82
78 81 82 86 89 92 97 84 76 72 64 60 63 66 69 69 70 69 70 71 71 71 71 72 73 74 73 72 72 71 73 73 73 75 78 80 82 84
79 82 85 88 92 95 79 74 70 63 60 60 64 67 69 69 70 71 73 74 73 74 75 76 77 75 71 69 69 69 69 71 72 72 73 73 73 74
81 83 88 90 91 78 71 68 64 60 60 62 66 69 69 71 72 73 74 75 75 76 79 79 77 75 70 69 68 67 67 68 70 72 72 72 70 68
82 86 84 82 73 70 69 65 60 58 61 66 68 69 71 72 73 75 77 77 77 78 81 81 77 76 72 69 65 61 60 63 68 70 69 65 60 57
83 77 75 67 67 66 65 59 58 59 63 66 69 70 72 73 75 78 78 78 78 79 77 76 75 74 77 70 64 58 58 58 61 60 57 53 49 49
74 69 66 64 62 64 59 57 59 61 64 66 68 70 73 75 77 78 77 77 78 74 73 74 74 75 74 72 68 59 52 47 51 52 51 44 40 40
64 63 61 60 61 60 57 59 60 62 64 66 68 72 75 78 78 77 77 78 76 72 71 71 72 73 71 71 70 63 50 41 43 43 42 40 35 33
58 57 59 59 59 58 59 59 60 62 63 67 70 73 76 77 76 77 79 80 75 72 71 70 71 70 68 69 67 61 50 38 34 39 36 34 32 32
57 58 59 57 57 58 57 58 59 61 65 69 72 76 76 76 76 78 80 78 73 70 69 68 68 67 69 67 60 55 45 41 31 33 32 31 31 30
58 56 55 56 54 55 56 57 59 63 67 70 73 76 75 74 76 79 77 74 72 71 70 66 63 65 65 60 55 47 46 38 33 28 31 28 29 27
51 53 52 51 53 53 54 56 61 64 67 71 73 76 74 76 78 76 73 71 70 70 70 67 64 63 59 56 48 46 43 37 29 28 31 27 26 26
50 50 50 48 49 51 55 59 61 65 68 73 74 75 74 77 78 75 71 69 70 69 69 65 63 58 58 57 46 33 44 33 27 29 28 25 26 26
43 43 44 47 50 55 57 60 63 67 71 74 75 73 75 78 76 73 70 68 67 68 70 65 57 54 52 52 47 25 35 36 27 28 27 24 24 26
41 42 45 49 52 55 59 63 65 69 73 75 73 74 76 74 74 71 69 67 67 67 68 66 56 50 48 46 43 31 23 37 29 27 26 24 24 25
44 47 49 51 54 58 61 65 68 72 75 74 73 75 74 72 72 71 68 67 67 66 65 63 56 50 43 41 41 31 23 34 29 24 26 26 24 24
49 51 53 55 60 62 65 68 72 74 74 73 75 76 72 71 71 70 68 66 66 65 63 60 55 47 40 37 37 32 28 32 27 23 25 27 24 25

GFSNE_250_spd_090.txt.gz
Wind_Speed
96 97 97 94 95 96 98 102 102 107 105 95 94 93 89 88 93 98 80 68 63 63 65 65 63 63 62 61 57 51 45 48 60 71 81 87 83 82
96 95 94 95 94 97 103 105 106 108 100 95 91 90 87 90 97 82 71 61 61 64 67 66 65 64 62 60 57 55 51 48 46 53 69 81 83 83
96 97 95 97 100 104 103 108 107 98 91 93 88 87 91 94 84 74 62 59 61 65 66 64 63 63 63 63 61 59 56 54 53 53 53 57 67 75
98 95 99 101 105 102 106 105 91 91 90 87 85 89 96 85 74 65 58 59 63 68 66 66 64 63 63 64 63 63 62 61 60 60 60 61 62 62
98 95 100 104 99 106 103 94 91 89 86 85 90 94 85 74 66 59 58 61 66 69 68 68 67 66 67 66 66 65 65 66 67 68 68 68 68 67
93 102 102 107 99 100 90 89 87 85 86 91 94 83 75 68 61 59 60 65 69 71 70 69 69 69 70 69 68 67 68 70 70 70 71 73 73 72
101 96 104 94 92 86 87 84 82 85 90 95 88 75 70 64 61 60 64 69 71 72 72 72 72 72 72 70 70 72 72 72 68 66 65 65 68 72
102 89 91 86 82 85 81 81 83 88 94 82 75 71 66 62 61 64 69 73 73 74 74 74 74 75 74 72 73 72 69 66 66 66 65 64 64 66
90 84 82 85 78 76 79 83 88 92 82 74 70 69 64 62 64 68 71 74 76 76 76 76 79 76 74 76 74 69 68 68 67 67 66 64 65 66
77 80 76 72 74 77 82 87 90 79 73 69 67 65 61 64 67 70 73 76 76 79 80 79 77 75 74 76 71 69 69 70 69 68 66 66 65 64
74 69 70 72 76 83 87 81 77 71 69 67 66 63 64 66 68 71 75 77 79 81 82 79 74 77 76 72 68 68 69 69 68 66 67 68 65 61
65 67 73 78 83 85 77 75 69 67 65 66 64 64 64 65 69 73 76 80 81 81 79 77 76 79 77 71 69 68 68 66 64 64 67 68 64 58
69 74 79 84 78 74 71 68 65 63 65 65 64 63 64 67 70 75 78 81 80 79 77 79 78 74 74 73 72 69 65 62 61 60 59 61 58 52
75 76 73 73 70 66 65 62 63 64 63 64 63 62 65 68 72 77 80 82 81 78 78 79 77 73 73 73 75 70 66 64 58 51 49 51 48 43
67 69 66 65 64 63 62 62 64 61 62 62 61 61 65 69 73 78 80 83 80 78 78 75 73 73 71 71 69 68 65 65 53 47 45 46 41 39
62 61 62 62 61 60 59 59 58 59 60 59 57 62 67 70 74 79 81 82 80 78 78 74 72 71 71 70 67 64 61 59 56 46 43 41 37 35
55 55 55 54 52 52 53 54 55 56 55 56 60 64 68 72 75 78 80 80 79 80 76 71 68 69 70 69 67 62 58 57 50 45 40 37 31 33
50 50 49 49 49 50 50 49 50 52 55 58 61 66 69 74 78 80 80 79 79 77 75 73 67 66 67 68 61 56 54 53 50 40 37 34 27 32
49 47 46 46 48 49 49 50 51 54 57 60 64 68 72 76 80 82 79 78 77 75 75 70 67 65 66 67 69 51 48 44 44 40 31 32 28 32
46 45 45 44 45 47 49 52 53 55 59 63 67 71 74 79 82 81 79 78 74 73 73 70 65 64 63 62 64 58 44 40 40 39 27 29 32 31
44 44 45 46 49 52 52 54 56 59 62 66 70 73 77 81 82 79 79 75 72 71 71 71 68 64 61 58 55 54 46 34 37 37 24 30 33 29
42 43 47 50 52 53 55 58 58 61 65 69 72 76 80 82 79 79 76 73 72 71 70 70 68 64 60 54 52 49 47 28 29 37 28 30 32 27
43 46 48 51 54 58 60 60 62 66 68 72 75 78 81 77 78 76 73 72 72 72 70 69 67 63 58 50 46 44 41 32 30 37 32 30 29 27

GFSNE_250_spd_093.txt.gz
Wind_Speed
93 95 98 99 100 99 96 93 90 86 86 89 97 98 99 101 98 95 89 88 89 89 78 69 59 55 57 59 60 59 57 54 51 48 46 44 42 41
100 103 101 102 100 93 90 92 88 86 89 95 98 97 99 96 92 92 88 89 91 79 71 63 57 56 59 62 62 61 58 55 54 52 50 48 47 47
107 105 103 98 92 88 87 91 87 92 94 93 101 98 94 95 94 87 89 95 81 74 67 60 58 59 63 65 65 63 59 58 58 57 56 54 52 52
108 103 97 92 88 86 88 89 93 92 97 101 97 93 94 93 86 88 91 88 76 69 63 60 60 63 66 68 67 66 63 63 63 62 59 58 58 59
104 99 95 90 84 87 91 94 92 94 106 99 93 96 92 85 87 91 92 78 73 65 62 61 65 68 70 70 69 68 68 68 68 66 63 62 64 65
98 92 88 88 86 89 94 94 91 101 93 91 96 91 83 84 90 93 80 72 70 64 62 66 69 71 72 72 72 71 72 72 68 64 65 64 61 60
90 87 87 86 91 97 100 95 98 92 91 91 89 80 82 88 93 80 73 70 66 65 66 70 71 73 74 74 74 73 71 68 66 66 66 61 58 56
87 85 90 96 96 99 90 95 87 91 84 87 78 81 88 92 82 75 70 67 66 67 68 71 74 74 76 77 73 69 67 69 69 66 62 58 58 58
90 96 100 96 95 86 87 86 83 83 82 78 80 86 92 81 75 69 67 67 68 69 70 74 76 76 78 75 71 68 70 70 67 63 62 60 60 59
90 85 84 82 81 80 78 80 79 73 75 79 85 90 81 76 70 67 67 67 67 70 73 75 77 78 78 76 70 70 70 67 66 66 64 63 63 62
71 71 70 71 71 76 78 69 71 74 79 85 84 78 73 69 67 66 65 65 68 70 74 77 78 81 80 76 71 71 67 66 67 66 65 64 64 62
59 62 68 72 72 66 67 70 74 80 84 78 76 71 67 66 67 64 64 65 66 70 76 79 79 82 82 77 72 67 64 65 66 64 63 65 64 63
63 65 62 60 62 66 71 76 79 76 75 72 71 68 66 65 63 62 63 64 67 71 76 78 81 82 80 80 74 66 65 64 63 61 62 63 62 59
55 57 59 62 66 72 76 72 73 70 69 66 63 61 60 60 60 60 62 65 68 73 75 79 82 81 80 81 78 70 67 64 59 56 58 57 55 53
56 59 62 67 71 68 69 68 66 63 60 57 56 57 57 58 58 61 63 66 71 74 77 81 82 81 80 78 77 73 70 66 59 58 56 54 50 48
57 62 64 63 65 64 61 59 57 55 54 54 54 53 54 56 59 62 65 71 74 76 79 81 82 81 80 76 74 72 69 64 63 59 57 54 45 44
58 57 59 59 58 54 52 51 50 50 50 49 50 52 55 58 62 65 69 74 77 80 81 80 80 79 78 76 74 71 67 62 60 59 53 54 43 41
55 53 50 47 49 49 48 48 47 47 46 48 51 54 57 61 65 67 71 75 78 83 85 82 78 76 73 75 72 69 65 61 58 57 52 53 43 32
46 42 45 47 45 45 46 46 46 48 51 52 53 57 61 64 67 70 73 76 81 86 86 81 77 73 72 72 75 68 61 57 54 52 47 48 47 32
41 44 47 47 47 46 44 45 46 49 51 54 57 60 64 67 68 71 75 79 84 84 82 80 75 72 70 67 68 73 61 52 50 48 44 44 42 33
43 45 45 42 42 43 43 45 46 49 52 56 58 61 63 66 69 73 78 81 79 79 80 78 76 72 69 66 63 63 61 47 42 41 41 40 35 31
44 43 42 44 45 46 47 49 52 54 57 60 63 65 66 67 70 76 78 76 76 75 73 74 72 70 65 58 55 51 49 44 36 36 38 39 35 30
46 46 46 47 48 50 51 53 56 57 59 63 66 65 66 68 73 75 72 73 72 72 72 71 70 66 58 51 46 44 42 40 38 37 34 36 35 28

GFSNE_250_spd_096.txt.gz
Wind_Speed
84 85 86 90 92 93 95 99 100 105 111 106 99 94 88 90 95 91 94 91 92 94 95 87 88 90 78 72 64 56 51 52 54 54 51 49 47 44
94 97 99 98 100 103 106 109 110 112 111 101 92 87 86 93 95 94 92 90 95 94 89 87 91 84 75 68 60 54 53 55 58 56 54 53 50 48
103 104 102 105 107 109 113 113 113 108 98 88 88 87 90 94 95 90 91 91 93 92 85 89 89 79 73 66 59 56 57 59 60 59 59 57 55 54
114 112 113 116 116 117 116 111 104 99 90 88 88 90 92 89 93 90 92 92 89 86 85 93 82 76 71 67 62 61 61 64 64 64 64 62 59 57
122 119 119 117 113 112 106 101 97 91 89 87 89 89 88 87 86 90 92 89 88 85 89 90 80 74 70 67 65 65 66 68 67 65 64 60 57 55
114 112 110 106 101 99 99 93 91 87 89 90 95 92 86 85 90 91 88 83 85 88 93 82 75 72 70 68 68 68 69 71 69 66 63 59 58 59
107 106 104 98 99 94 96 92 91 89 89 90 85 84 81 85 86 87 80 82 86 90 82 76 73 71 69 69 71 71 72 73 71 66 62 60 61 59
102 96 94 92 97 96 92 85 83 85 83 79 79 80 85 82 85 78 81 86 89 82 74 73 72 70 70 71 72 74 75 75 73 66 64 62 59 56
93 88 88 88 89 86 83 82 81 77 76 78 81 79 82 84 77 80 86 88 81 75 73 72 70 69 70 71 73 74 77 76 72 68 65 60 57 57
82 79 79 79 78 76 76 72 69 70 75 75 76 79 78 75 80 85 83 80 76 75 72 69 68 69 70 72 73 76 77 76 72 70 66 61 60 58
74 71 72 71 69 66 64 63 66 68 71 72 70 72 76 80 85 79 78 77 73 70 67 67 67 68 71 73 76 78 78 77 75 73 68 64 62 59
66 66 66 65 62 63 59 63 66 70 66 67 71 75 80 81 78 75 72 67 65 65 65 65 66 69 71 75 78 79 77 75 74 72 70 68 64 62
62 58 59 59 59 59 60 63 68 62 67 71 75 79 75 73 70 67 65 63 61 61 63 66 67 71 75 80 81 81 77 74 70 70 69 69 67 64
56 55 55 57 59 58 58 58 61 67 70 73 72 71 68 67 63 60 58 57 58 60 63 67 71 74 79 82 84 81 76 72 67 65 67 67 63 62
50 49 49 48 48 49 54 61 65 69 68 67 65 61 60 58 56 55 55 57 60 62 66 69 73 77 80 83 87 82 78 76 69 65 67 66 62 58
46 48 45 46 50 56 58 63 62 61 59 58 57 55 53 50 52 55 57 60 64 65 69 73 75 78 82 85 86 82 78 76 73 69 69 69 64 59
44 43 47 51 54 58 58 57 52 50 48 48 49 49 50 53 54 56 60 65 67 69 70 71 75 80 85 86 83 80 78 77 74 70 68 69 67 60
44 49 51 54 53 53 54 48 48 49 49 49 48 48 49 51 54 58 63 65 68 69 71 74 77 82 81 81 80 76 75 74 72 69 66 63 66 57
47 52 51 50 50 51 47 46 46 45 44 45 47 49 52 54 57 61 64 66 68 70 74 78 81 79 79 78 78 73 72 72 67 63 56 53 53 52
49 48 48 51 50 47 45 45 44 45 46 48 50 52 55 58 61 64 67 68 69 74 78 79 77 78 74 74 73 74 65 62 59 55 51 47 45 44
48 48 49 50 48 47 46 44 45 47 48 51 54 55 58 62 64 66 69 69 72 77 79 75 76 73 71 69 69 69 63 53 50 46 45 45 41 39
50 50 51 51 50 50 49 47 48 49 51 54 56 59 61 65 66 68 70 71 75 76 70 73 73 70 66 66 65 60 57 52 47 45 42 41 40 37
53 54 54 51 52 53 52 51 51 51 53 56 58 61 64 67 67 70 70 74 76 74 68 71 71 68 65 63 58 54 52 51 47 42 38 41 39 37

GFSNE_250_spd_099.txt.gz
Wind_Speed
89 90 85 83 83 82 89 91 92 96 98 102 104 112 118 122 121 112 103 101 96 92 89 86 84 86 92 86 81 82 76 65 57 50 46 46 48 50
90 91 92 87 90 95 99 100 102 104 105 110 115 121 123 118 110 100 99 94 90 86 84 84 85 90 89 81 82 82 72 65 59 52 49 50 51 51
94 97 98 96 98 100 104 109 111 113 115 122 125 124 116 109 100 101 95 92 87 82 82 85 87 89 81 82 85 76 70 66 60 54 52 53 52 52
101 101 103 104 105 110 115 117 120 122 126 130 124 112 110 103 98 94 92 85 80 81 85 87 88 83 82 84 83 73 68 67 63 59 56 56 54 52
117 119 116 115 119 124 126 129 128 128 125 119 113 107 101 97 100 98 87 82 78 82 85 86 87 81 84 86 77 72 69 68 65 63 60 59 58 57
123 124 125 128 130 130 126 122 120 118 117 111 107 99 98 97 92 87 81 76 80 84 86 85 79 83 86 80 75 73 70 68 66 63 62 63 62 59
127 126 125 122 120 118 117 116 114 111 111 106 99 92 93 89 85 81 74 79 83 83 83 80 83 86 80 78 75 70 69 68 66 64 65 67 66 63
119 118 117 114 113 112 111 111 111 109 101 96 91 84 84 78 75 73 77 80 82 77 79 83 86 80 78 74 69 67 67 66 66 67 69 70 69 66
115 113 113 112 111 104 104 100 98 92 87 84 80 77 72 71 72 75 76 75 73 78 83 84 78 74 71 68 66 66 64 66 68 71 73 72 72 69
104 105 103 98 96 95 92 86 82 80 75 75 71 67 66 69 70 72 72 74 78 82 80 75 72 69 68 66 65 65 66 69 72 75 76 76 74 68
92 91 89 87 84 82 80 76 74 71 68 67 65 64 67 67 70 71 73 77 78 74 71 68 66 66 65 66 67 68 70 73 76 79 80 79 74 70
81 81 79 77 73 70 69 65 65 62 61 61 60 62 65 69 70 73 76 73 70 66 65 63 62 63 65 67 69 73 75 77 78 80 80 77 73 71
72 71 70 67 65 63 61 59 57 58 57 57 60 60 61 66 71 71 69 66 62 62 60 61 62 63 66 71 73 75 76 77 79 79 77 74 72 70
65 62 60 57 58 56 53 53 55 55 55 53 54 59 64 67 62 60 58 56 56 57 61 61 63 65 69 73 75 76 77 78 77 75 73 73 72 71
57 56 53 52 50 50 51 51 49 49 48 52 58 61 62 57 56 55 52 52 53 55 58 61 65 69 72 73 75 77 78 79 75 74 72 72 71 70
51 51 49 47 48 49 46 47 46 47 52 56 59 57 53 54 53 50 48 49 52 56 59 62 67 71 72 74 77 80 78 78 78 74 73 73 72 69
44 45 46 45 44 44 44 44 47 53 56 56 54 50 50 47 46 47 48 52 55 59 62 64 69 71 73 76 80 79 79 77 74 74 72 73 70 59
45 45 43 43 44 40 43 49 51 54 54 53 50 48 47 46 47 49 51 54 58 61 65 67 71 73 76 78 77 76 74 72 72 70 67 63 64 54
43 41 40 39 38 45 47 50 53 52 53 51 47 48 47 47 50 52 54 56 61 63 67 69 72 74 77 75 75 71 72 71 69 67 60 57 53 53
38 36 36 40 44 47 52 52 52 52 51 50 49 49 50 51 52 54 56 59 63 66 70 71 74 76 77 71 73 70 66 67 67 60 56 55 50 46
38 40 42 45 50 52 52 52 51 51 52 51 52 52 53 54 54 56 59 61 65 68 72 73 75 76 74 69 71 70 68 65 60 54 55 54 49 41
44 44 46 50 51 50 52 53 52 53 54 53 53 55 55 58 57 59 62 64 67 70 73 75 77 77 71 65 68 67 66 65 55 50 50 50 48 44
51 53 54 54 54 53 53 55 55 56 58 58 57 57 58 60 59 61 64 66 68 70 72 76 78 78 71 65 65 64 62 62 54 49 47 47 45 41

GFSNE_250_spd_102.txt.gz
Wind_Speed
92 92 93 92 91 89 90 89 89 88 89 89 95 101 103 105 108 113 120 129 129 118 116 107 98 91 87 76 74 78 83 79 72 75 65 56 48 43
93 91 91 91 91 92 92 93 94 94 96 97 103 107 108 112 117 122 129 132 123 117 111 103 97 89 79 75 78 82 81 77 74 74 65 58 51 45
93 94 94 96 97 99 100 105 106 106 104 104 111 114 116 120 121 128 132 122 116 111 104 101 87 81 75 77 81 82 79 76 78 72 64 59 53 46
103 104 106 108 111 108 110 110 112 111 117 118 119 119 121 127 131 128 121 116 109 107 97 88 82 76 75 80 82 78 77 80 76 67 61 55 52 49
108 110 113 113 115 116 118 121 121 122 119 118 126 128 127 127 122 114 115 109 104 93 87 80 77 73 78 80 75 78 80 75 68 61 58 55 53 51
117 117 119 121 120 120 122 121 122 124 125 128 127 124 120 117 116 110 108 101 92 84 79 75 73 75 77 74 78 80 75 69 63 60 57 55 55 55
123 124 124 125 127 128 127 128 128 125 123 119 118 114 113 108 104 103 95 86 82 76 72 73 73 73 74 79 79 73 68 62 60 58 58 59 59 60
122 121 121 121 122 123 125 124 124 121 117 113 115 110 107 102 92 87 81 80 75 70 69 71 72 75 77 79 71 66 62 60 59 60 62 63 65 67
117 117 117 119 119 119 120 119 119 118 116 114 105 97 94 87 82 77 75 68 66 65 68 71 73 75 76 69 65 62 60 60 62 64 68 69 69 69
113 113 114 115 116 118 118 114 110 102 96 92 89 85 79 73 71 69 64 61 61 66 67 69 72 70 64 61 59 60 60 61 65 68 70 70 70 71
109 108 107 105 103 101 97 93 90 87 83 81 75 71 69 67 64 59 59 58 61 61 66 65 61 58 56 57 58 59 62 65 69 71 71 72 73 72
93 93 93 91 88 87 83 81 79 78 72 69 66 64 62 59 57 56 57 56 59 63 63 58 56 53 54 55 59 61 64 68 69 70 73 75 72 68
84 84 83 81 79 77 74 71 69 66 64 59 58 58 54 53 54 51 52 58 62 59 55 53 48 49 52 56 60 63 66 68 69 73 77 75 69 67
77 74 73 71 70 69 65 64 61 58 55 54 52 51 51 48 48 50 55 59 56 53 47 45 48 51 55 59 63 65 69 70 73 76 77 72 69 66
68 66 65 63 61 59 57 55 53 52 51 49 47 49 44 48 49 54 56 53 50 47 46 47 49 52 56 61 66 68 72 72 75 76 73 71 67 63
58 57 57 56 54 52 51 50 49 48 47 45 43 42 46 48 52 56 53 49 48 47 47 50 53 55 59 63 68 71 72 74 77 72 70 70 64 62
49 49 49 47 48 48 48 48 44 42 41 43 42 45 48 51 54 53 50 48 47 48 49 52 55 57 62 66 70 72 74 74 73 71 68 69 63 57
44 44 46 47 47 46 46 42 40 39 40 41 44 48 49 53 53 50 50 49 49 50 52 55 57 60 64 67 71 74 73 74 71 67 64 64 63 53
44 44 44 43 43 44 42 41 39 39 40 45 46 50 51 52 50 50 50 51 52 52 54 57 59 62 66 69 73 73 74 72 69 66 63 62 60 52
41 41 42 42 41 39 38 37 38 39 43 46 50 52 51 52 51 50 51 52 54 55 56 57 60 63 66 70 75 74 72 71 66 64 63 63 59 48
40 41 41 41 40 41 41 41 41 43 46 50 51 51 52 53 53 53 54 55 56 57 58 59 60 64 67 69 73 75 73 66 61 60 60 61 59 50
41 41 42 43 44 46 46 45 45 46 49 53 51 53 54 56 57 57 58 59 59 60 60 60 61 64 66 68 71 73 74 67 60 57 53 56 55 51
48 46 48 48 50 51 51 50 51 54 56 58 58 58 59 62 61 62 64 63 63 64 62 62 62 64 65 68 70 72 72 67 60 59 52 50 49 43

GFSNE_250_spd_105.txt.gz
Wind_Speed
86 87 88 90 90 89 91 95 95 96 98 96 98 98 100 102 105 105 107 108 116 118 117 115 119 122 115 106 99 86 76 69 67 69 68 66 67 63
93 93 95 95 95 95 98 99 100 97 97 98 97 103 109 108 109 113 117 121 119 118 120 121 122 114 109 103 91 82 72 66 68 68 67 70 68 58
101 102 103 101 100 102 103 103 102 103 103 104 107 108 104 110 116 122 122 120 118 116 123 119 111 109 102 90 82 73 67 67 68 70 71 70 61 53
105 103 101 100 104 103 102 102 106 107 109 112 111 113 115 120 120 117 120 122 116 121 114 112 110 98 86 83 73 68 65 67 71 71 71 62 55 50
103 105 107 107 109 111 110 112 111 110 111 113 116 117 116 117 122 124 123 119 116 112 112 107 96 86 81 74 69 63 66 68 71 72 62 56 51 49
112 113 114 112 111 109 110 107 112 111 114 116 120 124 129 126 120 118 117 113 112 111 105 92 85 77 72 64 62 65 67 69 70 60 55 53 53 52
110 113 115 116 119 117 115 113 115 119 127 129 128 123 119 117 115 114 114 111 109 96 87 81 73 70 63 61 63 63 66 63 55 52 53 55 55 56
111 114 117 121 122 123 122 123 128 128 124 121 121 120 115 115 113 112 103 96 85 80 74 72 67 61 60 60 60 62 57 54 52 53 55 57 58 61
111 112 115 116 118 119 120 120 120 120 118 118 116 116 114 111 102 97 87 80 76 71 68 64 60 58 58 57 61 56 54 50 50 53 55 58 61 64
109 109 108 109 109 110 110 110 112 113 113 113 113 109 102 97 89 82 76 73 68 64 61 56 55 55 56 58 54 51 47 48 51 55 58 62 65 66
105 106 106 106 106 107 107 108 108 105 102 101 94 88 84 80 75 72 67 62 61 57 54 51 51 55 57 52 49 46 47 51 54 57 61 65 68 69
100 99 98 97 96 96 93 91 90 91 89 85 82 79 73 69 66 62 59 57 53 50 48 49 54 57 51 49 45 46 49 53 56 60 64 68 70 71
89 90 89 89 89 87 84 82 81 80 77 74 71 67 64 61 56 55 52 49 48 44 47 51 56 53 49 46 45 48 51 56 60 63 67 71 72 71
85 84 83 81 78 76 74 72 70 68 66 63 61 57 55 53 51 47 46 47 44 45 49 53 55 51 49 48 48 50 53 58 62 65 69 73 73 70
79 78 77 74 71 69 67 64 63 60 57 57 54 52 50 49 46 44 43 41 43 47 50 55 53 50 50 50 51 52 55 59 62 66 69 73 74 68
66 63 62 61 59 56 54 54 53 52 53 51 49 48 47 46 43 41 40 41 45 48 52 52 51 51 52 53 53 54 58 61 63 66 71 74 72 67
55 53 51 50 50 49 49 47 48 47 49 48 45 44 43 41 39 41 40 43 45 48 51 51 51 52 54 54 55 56 59 61 65 67 70 74 70 65
47 46 46 46 46 45 45 45 45 46 46 44 41 39 38 38 40 41 43 44 46 48 50 50 50 51 53 54 56 56 58 61 64 66 69 74 71 64
43 42 43 43 42 42 42 42 43 43 43 41 38 38 40 41 41 43 43 46 47 49 50 51 53 54 56 57 55 55 58 60 64 66 68 71 69 64
38 37 38 39 40 41 41 42 41 42 43 43 41 42 42 43 44 44 47 49 49 51 52 53 56 59 61 61 61 56 56 60 64 65 68 70 68 62
38 37 37 37 36 36 36 38 40 41 42 43 42 43 43 45 46 48 50 52 53 56 57 57 58 61 64 64 65 60 56 58 63 63 65 68 68 61
41 40 39 38 40 41 41 42 44 44 44 46 48 49 48 50 50 52 56 59 61 62 61 62 61 64 66 67 65 61 58 58 61 62 62 65 66 61
46 45 42 42 41 42 42 43 45 47 48 51 52 53 54 55 56 59 59 62 62 64 64 62 65 65 65 62 60 58 58 60 62 61 61 61 61 55

GFSNE_250_spd_108.txt.gz
Wind_Speed
89 89 89 88 89 91 93 93 94 94 96 97 101 104 108 106 106 109 105 105 101 106 96 110 115 118 118 110 109 108 102 93 83 73 65 60 58 57
99 98 98 97 96 98 96 97 97 99 102 106 109 112 112 111 110 106 106 107 106 105 108 113 119 118 113 110 107 105 92 83 76 67 60 58 59 59
104 104 103 103 102 102 104 105 106 111 111 113 115 112 111 110 108 109 106 113 102 109 114 119 114 110 109 109 103 92 82 72 67 62 57 57 58 61
112 112 108 107 106 111 110 112 114 113 114 110 109 106 108 108 108 107 93 104 111 109 118 121 114 110 106 103 89 82 73 68 64 58 55 55 56 53
111 114 116 114 114 117 116 114 113 110 110 109 107 110 113 103 114 107 114 114 113 115 123 113 111 107 104 91 80 73 67 64 58 55 54 54 52 50
108 109 113 115 116 115 112 111 109 109 110 110 115 114 116 114 115 120 121 120 122 120 109 110 106 102 86 79 71 67 63 59 55 53 55 52 49 45
106 108 109 110 111 112 112 113 109 108 110 111 113 115 118 118 120 118 118 113 109 108 106 103 95 84 77 70 64 61 57 53 52 54 51 49 46 46
107 107 108 110 112 111 112 111 109 107 107 109 111 113 114 113 111 109 109 108 104 104 102 88 81 75 67 61 58 54 51 51 53 51 48 45 47 47
100 101 104 105 106 107 106 105 105 106 108 109 108 108 108 109 107 107 105 104 101 90 83 77 71 64 60 55 51 48 48 52 51 48 45 46 47 50
98 98 99 100 101 101 103 104 105 105 104 105 105 104 103 104 103 99 93 88 83 78 72 67 62 57 52 47 46 46 50 49 48 46 47 49 50 53
98 97 99 101 102 102 102 102 103 104 103 101 99 96 93 91 88 85 81 76 71 69 63 59 56 50 44 43 43 47 50 48 46 47 49 50 53 56
96 97 98 99 99 99 97 96 94 93 91 89 88 86 85 82 78 74 70 66 63 60 56 53 48 42 39 42 45 49 48 48 49 50 51 52 55 58
90 91 91 92 92 92 90 89 88 86 85 83 80 77 74 70 66 64 62 59 55 52 51 46 42 39 39 43 46 48 49 49 51 52 52 54 56 59
86 87 88 89 88 87 86 84 82 80 77 74 71 67 64 60 57 55 54 52 49 48 45 41 38 37 41 43 46 48 50 50 52 53 54 56 57 60
83 84 84 82 81 80 78 74 70 66 63 60 58 57 55 53 53 50 49 48 45 42 40 36 37 39 41 43 46 47 47 49 51 54 55 56 57 59
76 76 75 74 70 66 61 57 54 52 50 50 48 46 48 47 46 45 45 42 43 39 38 37 38 41 43 45 46 47 47 47 52 54 55 56 55 58
65 63 62 60 57 53 50 47 45 44 43 44 44 43 44 43 41 41 40 41 41 38 37 38 41 43 45 47 48 50 50 52 53 55 56 57 53 57
56 54 52 51 48 46 43 42 41 40 40 40 40 39 39 39 37 37 39 39 40 38 40 40 42 45 48 49 51 51 54 56 57 59 58 59 54 54
50 47 45 44 42 41 40 40 39 38 38 38 38 38 37 37 38 39 41 39 40 42 43 43 45 48 50 52 54 54 57 61 61 62 60 58 57 55
47 45 42 40 38 36 35 35 36 38 38 38 39 39 40 41 41 42 44 45 45 46 45 46 48 51 52 57 60 58 60 61 64 63 60 55 54 56
47 45 41 40 38 38 37 37 35 37 37 40 42 43 44 45 47 47 46 47 47 47 49 50 53 54 55 58 60 61 59 61 63 63 55 51 54 56
46 46 43 43 42 40 39 38 38 39 39 39 39 41 42 41 45 45 46 48 50 52 52 53 56 59 61 62 62 63 63 61 60 59 52 51 55 58
46 46 45 44 44 44 44 42 41 41 42 42 43 44 43 44 45 46 48 52 54 56 56 55 57 59 61 63 64 65 65 63 58 57 53 52 56 59

GFSNE_250_spd_111.txt.gz
Wind_Speed
80 78 79 84 92 96 100 99 101 101 99 98 100 105 105 106 105 106 107 112 110 105 104 103 101 104 105 102 103 110 115 109 97 92 80 68 61 56
85 86 89 93 99 103 105 105 108 109 109 111 113 114 113 110 112 111 115 112 110 106 105 104 107 105 106 108 109 112 98 95 95 88 74 63 58 54
96 97 98 103 106 106 109 112 114 118 118 119 118 115 116 116 118 116 115 111 108 107 103 107 105 108 109 109 105 98 94 91 89 75 65 58 54 49
112 111 108 108 109 114 118 121 125 123 118 115 113 113 114 114 114 112 110 109 108 108 105 106 108 107 104 101 97 93 94 83 74 67 59 54 51 47
116 113 113 112 115 119 120 120 117 117 113 111 109 111 111 111 111 109 110 108 106 105 104 101 102 102 99 96 95 92 83 73 67 60 54 51 47 45
122 122 118 120 118 114 112 112 109 108 108 106 108 106 107 109 108 108 107 107 103 102 101 101 100 98 98 94 90 81 72 66 60 54 51 46 44 45
119 116 113 111 111 112 110 110 109 109 110 109 109 109 108 108 108 106 104 102 100 99 100 99 97 96 94 86 78 71 63 58 55 51 46 43 44 43
113 112 109 107 106 105 106 107 106 105 105 106 104 103 103 103 102 101 100 100 99 97 98 98 95 87 82 76 69 61 56 51 48 44 41 43 43 41
104 102 101 101 100 100 99 99 100 101 101 102 102 102 101 100 100 100 99 99 98 98 94 88 82 79 72 66 60 54 48 46 43 40 41 43 42 40
99 99 98 98 98 98 99 99 100 100 100 102 103 102 102 101 99 98 97 95 90 87 82 79 75 70 62 58 53 46 42 42 40 40 42 42 41 42
96 96 97 97 98 99 100 101 100 100 101 102 100 98 96 94 92 89 87 85 83 79 74 69 64 59 55 51 44 40 39 38 38 41 42 41 42 44
91 90 90 91 92 94 94 95 95 95 93 93 92 91 88 87 86 84 81 77 73 68 63 59 55 50 46 42 38 36 35 37 39 40 41 42 44 46
87 86 86 87 87 88 89 88 89 90 89 89 88 85 83 81 79 77 72 67 63 59 55 51 48 42 39 37 36 33 35 38 39 38 40 39 40 43
84 84 84 84 86 87 87 87 87 85 84 83 81 79 76 72 67 62 58 54 52 49 46 42 39 38 36 36 34 34 36 40 39 40 41 41 44 46
82 82 82 82 83 82 82 82 81 79 77 73 68 64 61 55 51 48 46 44 42 40 38 36 36 34 35 35 33 34 37 40 41 43 43 45 46 49
79 77 78 79 79 77 75 74 71 67 62 59 55 53 50 45 43 42 40 39 36 34 33 34 35 35 36 36 34 36 39 40 43 45 44 47 49 52
73 71 69 69 68 66 64 62 59 56 53 50 47 45 42 39 38 37 35 34 32 33 34 34 35 38 38 38 37 39 40 40 45 47 49 52 51 55
62 59 59 59 58 57 54 53 51 49 47 45 43 41 39 36 35 33 32 30 30 32 34 36 40 42 41 40 40 41 42 44 45 48 52 55 54 51
55 54 54 53 53 51 49 48 47 44 43 41 40 39 38 36 35 33 32 33 33 34 36 39 41 41 40 42 45 44 45 48 48 51 54 55 56 53
54 53 50 51 50 48 47 46 45 42 39 37 38 38 38 36 38 38 36 35 37 39 42 44 43 45 46 46 48 48 49 50 53 57 57 57 58 58
53 54 52 51 50 48 47 46 46 44 42 39 38 37 36 36 39 41 40 39 41 44 47 46 46 50 49 50 50 51 52 54 56 58 58 59 60 60
52 51 51 49 47 47 47 47 47 46 45 44 43 41 38 40 38 36 41 45 44 43 43 45 45 46 48 51 54 57 57 54 55 59 62 60 61 62
52 51 49 49 48 47 47 47 47 48 48 49 48 46 44 44 44 43 44 44 46 45 43 43 45 48 50 51 54 56 58 59 60 59 60 59 62 59

GFSNE_250_spd_114.txt.gz
Wind_Speed
72 72 74 75 73 76 76 80 84 91 91 92 97 106 112 111 109 112 115 115 115 110 105 102 102 101 101 100 98 95 90 90 89 86 84 78 71 62
79 81 80 80 81 80 85 94 92 98 96 99 106 110 111 114 120 120 118 115 109 105 102 99 101 100 99 97 99 96 92 89 87 83 82 74 67 59
95 95 93 91 92 93 94 94 98 99 101 109 116 119 120 121 121 120 117 110 107 104 103 102 102 101 100 100 97 90 87 87 86 84 77 68 62 54
100 100 100 99 100 103 104 106 108 108 112 118 126 127 129 124 120 115 111 111 109 106 105 104 99 97 95 95 90 87 86 84 86 80 71 63 56 49
104 107 107 108 108 110 114 117 119 122 125 132 130 122 119 117 116 114 113 107 105 106 104 100 97 94 92 90 88 86 85 83 79 71 64 58 51 44
116 116 115 118 124 126 130 131 130 129 128 122 119 117 115 112 110 108 105 103 102 101 98 96 94 92 89 88 87 86 83 77 72 65 60 51 44 40
125 129 133 134 136 133 128 127 127 127 122 118 114 112 109 106 104 102 101 98 98 96 95 95 92 91 90 90 86 81 76 71 66 59 52 44 38 38
137 138 139 138 133 134 129 125 122 120 116 112 109 108 106 103 102 100 99 98 96 95 96 94 94 91 87 82 78 73 71 65 59 52 46 38 36 36
137 139 138 138 139 131 123 118 114 110 109 109 108 107 104 103 100 98 98 98 97 95 93 90 87 83 79 76 72 68 63 57 51 45 37 34 34 34
141 139 135 126 120 117 113 110 107 104 102 102 102 101 99 98 96 95 94 92 90 87 84 82 80 78 74 71 66 60 55 50 44 36 33 33 32 34
125 123 116 112 110 107 106 102 98 97 97 96 94 92 90 89 88 88 86 85 84 82 79 77 75 72 67 63 57 52 47 43 36 31 32 32 31 33
111 108 106 103 100 99 97 95 93 91 89 89 88 87 87 87 87 86 85 81 79 76 73 71 67 61 57 52 49 43 39 35 29 30 32 30 30 32
99 97 97 97 94 93 92 90 89 88 87 86 85 86 86 85 83 81 78 76 72 66 62 58 54 49 45 42 39 36 31 29 31 32 32 30 31 34
92 91 91 91 90 89 88 88 88 87 86 83 82 82 83 80 78 74 69 63 57 54 50 46 42 39 37 35 32 30 29 31 33 32 32 31 32 35
89 88 89 88 87 87 86 85 86 86 84 81 79 79 77 72 68 60 55 50 48 46 43 38 37 34 32 30 30 30 30 33 33 32 34 33 34 36
87 88 86 85 85 83 82 82 82 82 80 76 72 67 63 59 54 51 47 44 41 38 35 34 32 30 29 30 31 31 33 34 34 35 36 35 35 37
87 87 84 82 82 79 78 77 77 75 70 65 61 57 56 51 48 44 41 39 36 35 33 30 31 30 31 32 33 34 35 37 38 39 38 38 38 40
84 84 81 79 77 75 73 70 69 67 64 59 55 53 51 47 44 40 38 37 34 33 31 32 34 34 34 35 35 37 38 41 42 42 43 43 41 43
80 80 78 73 71 69 66 63 61 60 58 55 53 51 49 46 43 39 36 35 34 34 32 34 35 36 38 38 38 38 39 41 42 44 46 47 47 45
76 73 70 66 63 62 61 61 58 57 58 56 54 51 48 45 42 39 37 36 35 36 36 37 37 37 39 40 40 38 41 42 43 44 47 49 50 51
67 63 62 62 60 59 60 58 56 56 56 56 54 52 49 48 45 43 40 37 36 38 41 41 38 42 42 41 42 40 41 43 43 45 48 49 51 56
61 62 63 62 62 59 58 58 56 55 54 54 54 53 50 51 49 47 45 42 41 40 40 42 43 43 43 43 40 39 41 44 45 47 51 52 53 55
62 64 65 63 61 60 59 57 57 56 54 54 53 54 53 52 54 52 51 51 49 48 48 46 46 49 51 49 48 48 51 50 48 50 54 54 54 57

GFSNE_250_spd_117.txt.gz
Wind_Speed
70 68 69 68 64 70 74 79 80 87 85 87 88 88 89 92 94 97 105 113 119 120 126 126 115 110 105 101 99 96 91 88 85 81 79 74 73 71
73 74 77 77 80 74 79 80 88 93 92 92 95 93 96 95 100 106 109 123 118 124 122 116 112 106 102 98 94 93 90 86 82 79 77 74 72 70
82 82 82 83 86 89 92 94 98 97 98 98 98 99 99 107 107 112 123 131 127 125 119 114 109 101 98 93 91 89 87 85 80 76 76 74 71 66
90 92 90 92 95 99 98 103 103 104 104 104 110 111 111 110 117 123 127 133 130 121 115 109 105 100 95 92 88 86 84 82 79 78 75 72 67 60
95 90 92 95 100 101 105 111 117 118 119 113 114 118 121 125 130 133 136 134 123 114 110 106 102 98 95 90 86 84 82 82 79 77 72 68 62 57
99 101 103 108 109 115 118 116 121 122 123 123 127 127 129 134 137 138 133 118 113 110 106 101 99 96 92 90 87 84 82 79 75 72 66 62 58 53
104 106 111 112 117 119 123 123 126 129 130 131 135 134 135 140 138 127 120 115 110 105 101 97 94 92 89 85 84 80 76 73 70 64 61 59 54 47
116 117 118 121 124 127 128 130 134 135 141 136 139 145 143 137 128 122 113 110 102 97 94 91 86 83 80 78 76 72 70 68 65 61 58 54 47 42
118 121 125 126 127 133 138 142 136 134 140 149 149 144 135 130 120 112 105 99 94 92 87 84 81 79 76 74 73 71 69 65 61 55 51 47 41 37
121 125 128 135 140 139 135 138 141 149 151 147 142 135 126 115 109 102 94 92 89 86 83 81 78 75 73 71 69 67 63 59 55 49 45 41 36 33
129 135 138 138 136 142 147 146 156 155 147 139 138 125 113 105 98 92 90 88 85 82 79 75 73 70 69 67 63 60 56 53 47 42 39 36 32 29
137 138 140 146 147 154 155 153 154 145 139 134 116 109 101 96 92 88 86 84 80 78 76 73 70 65 60 54 50 47 45 40 38 37 36 33 30 29
142 149 151 151 148 146 143 137 135 127 114 106 103 99 96 93 88 84 82 81 78 74 71 65 58 52 48 44 41 38 36 34 33 34 34 31 29 32
148 149 149 149 140 129 120 115 110 105 101 99 97 95 92 89 86 82 80 76 70 63 59 53 48 44 41 38 34 31 31 32 33 33 33 30 31 34
147 146 132 123 127 118 107 106 102 99 97 95 93 91 88 85 81 77 71 64 59 54 50 46 42 37 35 32 30 31 31 32 34 34 33 33 35 34
136 142 125 108 104 103 100 99 97 94 92 91 89 88 85 80 73 67 62 57 52 48 46 42 39 35 32 32 31 32 33 35 34 35 36 36 37 38
102 101 102 99 98 98 96 95 91 89 89 88 87 83 78 71 65 58 54 50 48 45 43 40 37 34 32 32 32 34 36 37 37 37 37 38 38 39
96 97 96 96 94 94 92 90 88 88 86 85 82 75 68 63 59 54 52 50 46 44 42 40 37 36 34 33 34 37 38 39 40 41 40 41 40 42
92 93 93 91 90 90 88 86 85 84 82 78 73 65 62 59 57 54 52 50 47 44 41 40 37 36 35 35 38 40 41 43 43 43 43 44 43 44
89 88 90 90 88 87 85 82 80 78 74 69 66 62 59 57 54 53 52 50 48 45 42 41 38 37 38 38 40 41 42 44 46 44 43 42 42 42
87 87 87 88 86 82 81 78 75 71 67 65 64 61 56 55 54 52 52 51 49 47 45 43 42 42 42 42 42 40 42 43 44 45 45 47 47 46
86 85 84 84 83 81 77 71 68 68 66 63 60 58 54 54 54 53 53 51 50 50 47 45 45 46 46 47 48 46 47 50 51 49 48 48 50 51
82 82 83 81 79 75 70 66 65 65 65 62 59 57 57 57 55 54 54 54 53 53 53 51 49 49 51 51 51 53 54 55 53 50 50 51 52 53